Time,TemperatureF,DewpointF,PressureIn,WindDirection,WindDirectionDegrees,WindSpeedMPH,WindSpeedGustMPH,Humidity,HourlyPrecipIn,Conditions,Clouds,dailyrainin,SolarRadiationWatts/m^2,SoftwareType,DateUTC
2013-10-09 00:00:00,61.9,47.0,29.94,SSW,201,12.0,17.0,58,0.00,,OVC,0.00,0.00,VWS V15.00,2013-10-09 05:00:00,
2013-10-09 00:01:00,61.9,47.0,29.94,SW,234,7.0,12.0,58,0.00,,SKC,0.00,0.00,VWS V14.01,2013-10-09 05:01:00,
2013-10-09 00:05:00,61.8,47.3,29.94,WSW,242,10.0,12.0,59,0.00,,OVC,0.00,0.00,VWS V15.00,2013-10-09 05:05:00,
2013-10-09 00:06:00,61.8,46.9,29.94,SW,221,8.0,13.0,58,0.00,,SKC,0.00,0.00,VWS V14.01,2013-10-09 05:06:00,
2013-10-09 00:10:00,61.7,46.8,29.94,WSW,251,8.0,13.0,58,0.00,,OVC,0.00,0.00,VWS V15.00,2013-10-09 05:10:00,
2013-10-09 00:11:00,61.7,46.8,29.94,SSW,194,7.0,8.0,58,0.00,,SKC,0.00,0.00,VWS V14.01,2013-10-09 05:11:00,
2013-10-09 00:15:00,61.6,46.7,29.94,SW,234,7.0,17.0,58,0.00,,OVC,0.00,0.00,VWS V15.00,2013-10-09 05:15:00,
2013-10-09 00:16:00,61.6,46.7,29.95,WSW,248,7.0,8.0,58,0.00,,SKC,0.00,0.00,VWS V14.01,2013-10-09 05:16:00,
2013-10-09 00:20:00,61.4,47.4,29.95,SW,232,7.0,13.0,60,0.00,,OVC,0.00,0.00,VWS V15.00,2013-10-09 05:20:00,
2013-10-09 00:21:00,61.4,47.0,29.95,SW,230,7.0,7.0,59,0.00,,SKC,0.00,0.00,VWS V14.01,2013-10-09 05:21:00,
2013-10-09 00:25:00,61.2,47.2,29.95,SW,228,8.0,13.0,60,0.00,,OVC,0.00,0.00,VWS V15.00,2013-10-09 05:25:00,
2013-10-09 00:26:00,61.2,47.2,29.95,SW,231,5.0,8.0,60,0.00,,SKC,0.00,0.00,VWS V14.01,2013-10-09 05:26:00,
2013-10-09 00:30:00,61.1,47.1,29.95,South,184,3.0,13.0,60,0.00,,OVC,0.00,0.00,VWS V15.00,2013-10-09 05:30:00,
2013-10-09 00:32:00,61.1,47.1,29.95,South,184,2.0,3.0,60,0.00,,SKC,0.00,0.00,VWS V14.01,2013-10-09 05:32:00,
2013-10-09 00:35:00,60.8,46.8,29.95,West,265,6.0,10.0,60,0.00,,OVC,0.00,0.00,VWS V15.00,2013-10-09 05:35:00,
2013-10-09 00:37:00,60.8,46.8,29.95,WSW,239,4.0,6.0,60,0.00,,SKC,0.00,0.00,VWS V14.01,2013-10-09 05:37:00,
2013-10-09 00:40:00,60.7,46.8,29.95,SW,230,6.0,8.0,60,0.00,,OVC,0.00,0.00,VWS V15.00,2013-10-09 05:40:00,
2013-10-09 00:42:00,60.7,46.8,29.95,SSW,212,4.0,9.0,60,0.00,,SKC,0.00,0.00,VWS V14.01,2013-10-09 05:42:00,
2013-10-09 00:45:00,60.6,47.1,29.95,SW,214,9.0,9.0,61,0.00,,OVC,0.00,0.00,VWS V15.00,2013-10-09 05:45:00,
2013-10-09 00:47:00,60.6,46.7,29.95,WSW,250,4.0,13.0,60,0.00,,SKC,0.00,0.00,VWS V14.01,2013-10-09 05:47:00,
2013-10-09 00:50:00,60.5,46.6,29.96,SW,232,4.0,13.0,60,0.00,,OVC,0.00,0.00,VWS V15.00,2013-10-09 05:50:00,
2013-10-09 00:52:00,60.5,47.4,29.96,SW,232,2.0,4.0,62,0.00,,SKC,0.00,0.00,VWS V14.01,2013-10-09 05:52:00,
2013-10-09 00:55:00,60.3,47.2,29.95,SSW,213,6.0,9.0,62,0.00,,OVC,0.00,0.00,VWS V15.00,2013-10-09 05:55:00,
2013-10-09 00:57:00,60.3,47.2,29.96,SSW,212,5.0,7.0,62,0.00,,SKC,0.00,0.00,VWS V14.01,2013-10-09 05:57:00,
2013-10-09 01:00:00,60.2,46.7,29.96,WSW,242,4.0,8.0,61,0.00,,OVC,0.00,0.00,VWS V15.00,2013-10-09 06:00:00,
2013-10-09 01:02:00,60.1,47.0,29.96,South,172,4.0,5.0,62,0.00,,SKC,0.00,0.00,VWS V14.01,2013-10-09 06:02:00,
2013-10-09 01:05:00,59.7,47.1,29.96,South,180,7.0,7.0,63,0.00,,OVC,0.00,0.00,VWS V15.00,2013-10-09 06:05:00,
2013-10-09 01:07:00,59.7,47.1,29.96,South,184,0.0,7.0,63,0.00,,SKC,0.00,0.00,VWS V14.01,2013-10-09 06:07:00,
2013-10-09 01:10:00,59.6,46.6,29.96,SSW,205,4.0,9.0,62,0.00,,OVC,0.00,0.00,VWS V15.00,2013-10-09 06:10:00,
2013-10-09 01:12:00,59.6,46.6,29.96,WSW,240,10.0,10.0,62,0.00,,SKC,0.00,0.00,VWS V14.01,2013-10-09 06:12:00,
2013-10-09 01:15:00,59.6,47.0,29.96,SW,227,5.0,10.0,63,0.00,,OVC,0.00,0.00,VWS V15.00,2013-10-09 06:15:00,
2013-10-09 01:17:00,59.6,46.6,29.96,SW,215,7.0,9.0,62,0.00,,SKC,0.00,0.00,VWS V14.01,2013-10-09 06:17:00,
2013-10-09 01:20:00,59.5,46.9,29.96,SW,231,3.0,9.0,63,0.00,,OVC,0.00,0.00,VWS V15.00,2013-10-09 06:20:00,
2013-10-09 01:22:00,59.5,46.5,29.96,SSW,192,7.0,7.0,62,0.00,,SKC,0.00,0.00,VWS V14.01,2013-10-09 06:22:00,
2013-10-09 01:25:00,59.4,46.4,29.96,SW,218,4.0,9.0,62,0.00,,OVC,0.00,0.00,VWS V15.00,2013-10-09 06:25:00,
2013-10-09 01:27:00,59.4,46.8,29.96,SW,228,7.0,7.0,63,0.00,,SKC,0.00,0.00,VWS V14.01,2013-10-09 06:27:00,
2013-10-09 01:30:00,59.4,46.4,29.96,SW,225,5.0,9.0,62,0.00,,OVC,0.00,0.00,VWS V15.00,2013-10-09 06:30:00,
2013-10-09 01:32:00,59.3,46.7,29.97,WSW,252,5.0,9.0,63,0.00,,SKC,0.00,0.00,VWS V14.01,2013-10-09 06:32:00,
2013-10-09 01:35:00,59.3,46.3,29.97,WSW,240,4.0,9.0,62,0.00,,OVC,0.00,0.00,VWS V15.00,2013-10-09 06:35:00,
2013-10-09 01:37:00,59.3,47.1,29.97,WSW,237,6.0,7.0,64,0.00,,SKC,0.00,0.00,VWS V14.01,2013-10-09 06:37:00,
2013-10-09 01:40:00,59.0,46.8,29.97,SW,236,5.0,8.0,64,0.00,,OVC,0.00,0.00,VWS V15.00,2013-10-09 06:40:00,
2013-10-09 01:42:00,59.0,46.4,29.97,SW,234,5.0,6.0,63,0.00,,SKC,0.00,0.00,VWS V14.01,2013-10-09 06:42:00,
2013-10-09 01:45:00,59.0,46.8,29.97,SSW,205,7.0,7.0,64,0.00,,OVC,0.00,0.00,VWS V15.00,2013-10-09 06:45:00,
2013-10-09 01:47:00,59.0,46.8,29.97,SSW,211,4.0,7.0,64,0.00,,SKC,0.00,0.00,VWS V14.01,2013-10-09 06:47:00,
2013-10-09 01:50:00,58.9,47.2,29.97,SW,220,7.0,8.0,65,0.00,,OVC,0.00,0.00,VWS V15.00,2013-10-09 06:50:00,
2013-10-09 01:52:00,58.8,46.7,29.98,SSW,213,3.0,7.0,64,0.00,,SKC,0.00,0.00,VWS V14.01,2013-10-09 06:52:00,
2013-10-09 01:55:00,58.7,46.6,29.98,SSW,211,5.0,7.0,64,0.00,,OVC,0.00,0.00,VWS V15.00,2013-10-09 06:55:00,
2013-10-09 01:57:00,58.6,46.9,29.98,West,259,7.0,7.0,65,0.00,,SKC,0.00,0.00,VWS V14.01,2013-10-09 06:57:00,
2013-10-09 02:00:00,58.6,47.3,29.98,SW,236,6.0,8.0,66,0.00,,OVC,0.00,0.00,VWS V15.00,2013-10-09 07:00:00,
2013-10-09 02:02:00,58.5,46.8,29.98,SSW,205,2.0,6.0,65,0.00,,SKC,0.00,0.00,VWS V14.01,2013-10-09 07:02:00,
2013-10-09 02:05:00,58.3,46.6,29.98,SW,230,5.0,7.0,65,0.00,,OVC,0.00,0.00,VWS V15.00,2013-10-09 07:05:00,
2013-10-09 02:08:00,58.2,46.5,29.98,SW,231,3.0,5.0,65,0.00,,SKC,0.00,0.00,VWS V14.01,2013-10-09 07:08:00,
2013-10-09 02:10:00,58.2,46.9,29.98,SW,232,5.0,8.0,66,0.00,,OVC,0.00,0.00,VWS V15.00,2013-10-09 07:10:00,
2013-10-09 02:13:00,58.1,46.8,29.98,SW,214,3.0,7.0,66,0.00,,SKC,0.00,0.00,VWS V14.01,2013-10-09 07:13:00,
2013-10-09 02:15:00,58.1,46.4,29.98,WSW,238,4.0,9.0,65,0.00,,OVC,0.00,0.00,VWS V15.00,2013-10-09 07:15:00,
2013-10-09 02:18:00,58.1,46.4,29.98,WSW,246,3.0,8.0,65,0.00,,SKC,0.00,0.00,VWS V14.01,2013-10-09 07:18:00,
2013-10-09 02:20:00,58.0,46.3,29.98,SSW,196,1.0,8.0,65,0.00,,OVC,0.00,0.00,VWS V15.00,2013-10-09 07:20:00,
2013-10-09 02:23:00,57.9,47.0,29.98,SSW,211,4.0,4.0,67,0.00,,SKC,0.00,0.00,VWS V14.01,2013-10-09 07:23:00,
2013-10-09 02:25:00,57.9,46.6,29.98,SW,229,2.0,6.0,66,0.00,,OVC,0.00,0.00,VWS V15.00,2013-10-09 07:25:00,
2013-10-09 02:28:00,57.9,46.6,29.98,SSW,202,7.0,7.0,66,0.00,,SKC,0.00,0.00,VWS V14.01,2013-10-09 07:28:00,
2013-10-09 02:30:00,57.9,46.2,29.98,SW,220,5.0,7.0,65,0.00,,OVC,0.00,0.00,VWS V15.00,2013-10-09 07:30:00,
2013-10-09 02:33:00,57.9,46.6,29.98,SSW,208,6.0,6.0,66,0.00,,SKC,0.00,0.00,VWS V14.01,2013-10-09 07:33:00,
2013-10-09 02:35:00,57.8,46.1,29.98,SW,218,2.0,8.0,65,0.00,,OVC,0.00,0.00,VWS V15.00,2013-10-09 07:35:00,
2013-10-09 02:38:00,57.7,46.4,29.98,SSW,192,3.0,7.0,66,0.00,,SKC,0.00,0.00,VWS V14.01,2013-10-09 07:38:00,
2013-10-09 02:40:00,57.7,46.8,29.98,SSW,198,4.0,7.0,67,0.00,,OVC,0.00,0.00,VWS V15.00,2013-10-09 07:40:00,
2013-10-09 02:43:00,57.5,46.2,29.98,SW,229,6.0,6.0,66,0.00,,SKC,0.00,0.00,VWS V14.01,2013-10-09 07:43:00,
2013-10-09 02:45:00,57.4,46.9,29.98,SW,225,2.0,6.0,68,0.00,,OVC,0.00,0.00,VWS V15.00,2013-10-09 07:45:00,
2013-10-09 02:48:00,57.2,46.8,29.98,SW,233,9.0,9.0,68,0.00,,SKC,0.00,0.00,VWS V14.01,2013-10-09 07:48:00,
2013-10-09 02:50:00,57.1,46.3,29.98,SSW,202,1.0,9.0,67,0.00,,OVC,0.00,0.00,VWS V15.00,2013-10-09 07:50:00,
2013-10-09 02:53:00,56.9,46.5,29.98,WSW,241,4.0,5.0,68,0.00,,SKC,0.00,0.00,VWS V14.01,2013-10-09 07:53:00,
2013-10-09 02:55:00,56.8,46.4,29.98,SW,229,3.0,6.0,68,0.00,,OVC,0.00,0.00,VWS V15.00,2013-10-09 07:55:00,
2013-10-09 02:58:00,56.8,46.0,29.98,South,176,5.0,5.0,67,0.00,,SKC,0.00,0.00,VWS V14.01,2013-10-09 07:58:00,
2013-10-09 03:00:00,56.6,46.2,29.98,SW,222,3.0,5.0,68,0.00,,OVC,0.00,0.00,VWS V15.00,2013-10-09 08:00:00,
2013-10-09 03:03:00,56.4,46.4,29.98,South,189,1.0,5.0,69,0.00,,SKC,0.00,0.00,VWS V14.01,2013-10-09 08:03:00,
2013-10-09 03:05:00,56.2,45.8,29.98,SSW,198,2.0,6.0,68,0.00,,OVC,0.00,0.00,VWS V15.00,2013-10-09 08:05:00,
2013-10-09 03:08:00,56.2,46.2,29.98,SW,228,4.0,5.0,69,0.00,,SKC,0.00,0.00,VWS V14.01,2013-10-09 08:08:00,
2013-10-09 03:10:00,56.0,46.4,29.98,SSW,209,1.0,5.0,70,0.00,,OVC,0.00,0.00,VWS V15.00,2013-10-09 08:10:00,
2013-10-09 03:13:00,55.9,46.7,29.98,SSW,200,4.0,4.0,71,0.00,,SKC,0.00,0.00,VWS V14.01,2013-10-09 08:13:00,
2013-10-09 03:15:00,55.7,46.1,29.98,SW,215,2.0,4.0,70,0.00,,OVC,0.00,0.00,VWS V15.00,2013-10-09 08:15:00,
2013-10-09 03:18:00,55.6,45.6,29.98,SW,227,4.0,4.0,69,0.00,,SKC,0.00,0.00,VWS V14.01,2013-10-09 08:18:00,
2013-10-09 03:20:00,55.4,45.8,29.98,SSW,196,4.0,6.0,70,0.00,,OVC,0.00,0.00,VWS V15.00,2013-10-09 08:20:00,
2013-10-09 03:23:00,55.4,45.8,29.98,WSW,246,4.0,4.0,70,0.00,,SKC,0.00,0.00,VWS V14.01,2013-10-09 08:23:00,
2013-10-09 03:25:00,55.2,45.6,29.98,SW,214,1.0,5.0,70,0.00,,OVC,0.00,0.00,VWS V15.00,2013-10-09 08:25:00,
2013-10-09 03:28:00,55.1,45.9,29.98,SW,227,1.0,5.0,71,0.00,,SKC,0.00,0.00,VWS V14.01,2013-10-09 08:28:00,
2013-10-09 03:30:00,54.8,46.0,29.98,SSW,192,1.0,5.0,72,0.00,,OVC,0.00,0.00,VWS V15.00,2013-10-09 08:30:00,
2013-10-09 03:33:00,54.8,46.3,29.98,SSW,206,3.0,5.0,73,0.00,,SKC,0.00,0.00,VWS V14.01,2013-10-09 08:33:00,
2013-10-09 03:35:00,54.8,45.6,29.98,South,188,1.0,6.0,71,0.00,,OVC,0.00,0.00,VWS V15.00,2013-10-09 08:35:00,
2013-10-09 03:38:00,54.8,46.0,29.98,SSW,206,4.0,4.0,72,0.00,,SKC,0.00,0.00,VWS V14.01,2013-10-09 08:38:00,
2013-10-09 03:40:00,54.9,46.4,29.98,SSW,192,0.0,5.0,73,0.00,,OVC,0.00,0.00,VWS V15.00,2013-10-09 08:40:00,
2013-10-09 03:43:00,54.8,46.0,29.98,SSW,207,1.0,5.0,72,0.00,,SKC,0.00,0.00,VWS V14.01,2013-10-09 08:43:00,
2013-10-09 03:45:00,54.7,45.9,29.98,SSW,207,4.0,6.0,72,0.00,,OVC,0.00,0.00,VWS V15.00,2013-10-09 08:45:00,
2013-10-09 03:48:00,54.8,46.0,29.98,SSW,206,2.0,6.0,72,0.00,,SKC,0.00,0.00,VWS V14.01,2013-10-09 08:48:00,
2013-10-09 03:50:00,54.7,45.5,29.98,South,172,3.0,7.0,71,0.00,,OVC,0.00,0.00,VWS V15.00,2013-10-09 08:50:00,
2013-10-09 03:53:00,54.6,45.8,29.98,SW,227,1.0,4.0,72,0.00,,SKC,0.00,0.00,VWS V14.01,2013-10-09 08:53:00,
2013-10-09 03:55:00,54.7,45.9,29.98,SSW,192,1.0,6.0,72,0.00,,OVC,0.00,0.00,VWS V15.00,2013-10-09 08:55:00,
2013-10-09 03:58:00,54.6,45.8,29.98,SSW,197,3.0,5.0,72,0.00,,SKC,0.00,0.00,VWS V14.01,2013-10-09 08:58:00,
2013-10-09 04:00:00,54.5,46.0,29.98,South,189,1.0,5.0,73,0.00,,OVC,0.00,0.00,VWS V15.00,2013-10-09 09:00:00,
2013-10-09 04:03:00,54.6,45.8,29.98,South,186,2.0,4.0,72,0.00,,SKC,0.00,0.00,VWS V14.01,2013-10-09 09:03:00,
2013-10-09 04:05:00,54.5,46.0,29.98,SSW,207,0.0,4.0,73,0.00,,OVC,0.00,0.00,VWS V15.00,2013-10-09 09:05:00,
2013-10-09 04:08:00,54.4,45.9,29.99,South,182,3.0,5.0,73,0.00,,SKC,0.00,0.00,VWS V14.01,2013-10-09 09:08:00,
2013-10-09 04:10:00,54.4,45.9,29.99,South,181,0.0,5.0,73,0.00,,OVC,0.00,0.00,VWS V15.00,2013-10-09 09:10:00,
2013-10-09 04:13:00,54.2,45.8,29.99,South,174,5.0,5.0,73,0.00,,SKC,0.00,0.00,VWS V14.01,2013-10-09 09:13:00,
2013-10-09 04:15:00,54.4,45.9,29.99,SSW,211,2.0,5.0,73,0.00,,OVC,0.00,0.00,VWS V15.00,2013-10-09 09:15:00,
2013-10-09 04:18:00,54.4,46.3,29.99,South,188,4.0,5.0,74,0.00,,SKC,0.00,0.00,VWS V14.01,2013-10-09 09:18:00,
2013-10-09 04:20:00,54.3,45.8,29.99,SW,227,5.0,6.0,73,0.00,,OVC,0.00,0.00,VWS V15.00,2013-10-09 09:20:00,
2013-10-09 04:23:00,54.4,45.6,29.99,SW,236,6.0,6.0,72,0.00,,SKC,0.00,0.00,VWS V14.01,2013-10-09 09:23:00,
2013-10-09 04:25:00,54.6,45.8,29.99,SSW,209,4.0,7.0,72,0.00,,OVC,0.00,0.00,VWS V15.00,2013-10-09 09:25:00,
2013-10-09 04:28:00,54.7,45.9,29.99,SSW,212,3.0,7.0,72,0.00,,SKC,0.00,0.00,VWS V14.01,2013-10-09 09:28:00,
2013-10-09 04:30:00,54.8,46.0,29.99,SW,234,3.0,7.0,72,0.00,,OVC,0.00,0.00,VWS V15.00,2013-10-09 09:30:00,
2013-10-09 04:33:00,54.8,46.0,29.99,South,182,5.0,5.0,72,0.00,,SKC,0.00,0.00,VWS V14.01,2013-10-09 09:33:00,
2013-10-09 04:35:00,54.7,45.9,29.99,SSW,209,4.0,7.0,72,0.00,,OVC,0.00,0.00,VWS V15.00,2013-10-09 09:35:00,
2013-10-09 04:38:00,54.7,45.9,29.99,SSW,202,6.0,7.0,72,0.00,,SKC,0.00,0.00,VWS V14.01,2013-10-09 09:38:00,
2013-10-09 04:40:00,54.8,46.0,29.99,SSW,198,3.0,7.0,72,0.00,,OVC,0.00,0.00,VWS V15.00,2013-10-09 09:40:00,
2013-10-09 04:43:00,54.8,46.0,29.99,SW,221,3.0,7.0,72,0.00,,SKC,0.00,0.00,VWS V14.01,2013-10-09 09:43:00,
2013-10-09 04:45:00,54.8,46.0,29.99,SSW,194,3.0,7.0,72,0.00,,OVC,0.00,0.00,VWS V15.00,2013-10-09 09:45:00,
2013-10-09 04:48:00,54.8,46.0,29.99,SSW,203,6.0,7.0,72,0.00,,SKC,0.00,0.00,VWS V14.01,2013-10-09 09:48:00,
2013-10-09 04:50:00,54.9,46.1,29.99,SW,217,4.0,8.0,72,0.00,,OVC,0.00,0.00,VWS V15.00,2013-10-09 09:50:00,
2013-10-09 04:53:00,54.9,46.1,29.99,SW,216,6.0,9.0,72,0.00,,SKC,0.00,0.00,VWS V14.01,2013-10-09 09:53:00,
2013-10-09 04:55:00,54.9,46.1,29.99,SSW,213,4.0,9.0,72,0.00,,OVC,0.00,0.00,VWS V15.00,2013-10-09 09:55:00,
2013-10-09 04:59:00,54.9,46.1,29.99,SW,227,8.0,8.0,72,0.00,,SKC,0.00,0.00,VWS V14.01,2013-10-09 09:59:00,
2013-10-09 05:00:00,54.9,46.4,29.99,SW,231,2.0,8.0,73,0.00,,OVC,0.00,0.00,VWS V15.00,2013-10-09 10:00:00,
2013-10-09 05:04:00,54.8,46.0,30.00,SW,217,2.0,5.0,72,0.00,,SKC,0.00,0.00,VWS V14.01,2013-10-09 10:04:00,
2013-10-09 05:05:00,54.6,46.1,29.99,SW,222,6.0,6.0,73,0.00,,OVC,0.00,0.00,VWS V15.00,2013-10-09 10:05:00,
2013-10-09 05:09:00,54.6,46.1,30.00,WSW,254,5.0,6.0,73,0.00,,SKC,0.00,0.00,VWS V14.01,2013-10-09 10:09:00,
2013-10-09 05:10:00,54.5,46.0,30.00,SW,217,2.0,6.0,73,0.00,,OVC,0.00,0.00,VWS V15.00,2013-10-09 10:10:00,
2013-10-09 05:14:00,54.5,46.0,30.00,SW,232,7.0,7.0,73,0.00,,SKC,0.00,0.00,VWS V14.01,2013-10-09 10:14:00,
2013-10-09 05:15:00,54.6,46.1,30.00,SSW,207,1.0,7.0,73,0.00,,OVC,0.00,0.00,VWS V15.00,2013-10-09 10:15:00,
2013-10-09 05:19:00,54.6,45.8,30.00,SW,229,3.0,8.0,72,0.00,,SKC,0.00,0.00,VWS V14.01,2013-10-09 10:19:00,
2013-10-09 05:20:00,54.6,46.5,30.00,SW,225,5.0,8.0,74,0.00,,OVC,0.00,0.00,VWS V15.00,2013-10-09 10:20:00,
2013-10-09 05:24:00,54.4,45.9,30.00,SSW,200,2.0,8.0,73,0.00,,SKC,0.00,0.00,VWS V14.01,2013-10-09 10:24:00,
2013-10-09 05:25:00,54.5,46.0,30.00,SW,223,1.0,8.0,73,0.00,,OVC,0.00,0.00,VWS V15.00,2013-10-09 10:25:00,
2013-10-09 05:29:00,54.4,45.9,30.00,SSW,207,3.0,6.0,73,0.00,,SKC,0.00,0.00,VWS V14.01,2013-10-09 10:29:00,
2013-10-09 05:30:00,54.4,46.7,30.00,SW,220,0.0,6.0,75,0.00,,OVC,0.00,0.00,VWS V15.00,2013-10-09 10:30:00,
2013-10-09 05:34:00,54.4,45.9,30.00,SW,214,4.0,7.0,73,0.00,,SKC,0.00,0.00,VWS V14.01,2013-10-09 10:34:00,
2013-10-09 05:35:00,54.4,46.3,30.00,WSW,240,5.0,7.0,74,0.00,,OVC,0.00,0.00,VWS V15.00,2013-10-09 10:35:00,
2013-10-09 05:39:00,54.5,46.4,30.00,WSW,245,3.0,7.0,74,0.00,,SKC,0.00,0.00,VWS V14.01,2013-10-09 10:39:00,
2013-10-09 05:40:00,54.4,46.3,30.00,SW,231,4.0,7.0,74,0.00,,OVC,0.00,0.00,VWS V15.00,2013-10-09 10:40:00,
2013-10-09 05:44:00,54.3,46.2,30.00,SSW,210,3.0,6.0,74,0.00,,SKC,0.00,0.00,VWS V14.01,2013-10-09 10:44:00,
2013-10-09 05:45:00,54.2,45.8,30.00,South,180,4.0,6.0,73,0.00,,OVC,0.00,0.00,VWS V15.00,2013-10-09 10:45:00,
2013-10-09 05:49:00,54.2,46.1,29.99,SE,145,0.0,6.0,74,0.00,,SKC,0.00,0.00,VWS V14.01,2013-10-09 10:49:00,
2013-10-09 05:50:00,54.0,45.5,30.00,SSW,203,3.0,6.0,73,0.00,,OVC,0.00,0.00,VWS V15.00,2013-10-09 10:50:00,
2013-10-09 05:54:00,53.9,45.8,30.00,SSW,203,4.0,6.0,74,0.00,,SKC,0.00,0.00,VWS V14.01,2013-10-09 10:54:00,
2013-10-09 05:55:00,53.9,46.2,30.00,SW,222,2.0,7.0,75,0.00,,OVC,0.00,0.00,VWS V15.00,2013-10-09 10:55:00,
2013-10-09 05:59:00,53.9,46.2,30.00,South,181,4.0,6.0,75,0.00,,SKC,0.00,0.00,VWS V14.01,2013-10-09 10:59:00,
2013-10-09 06:00:00,54.0,46.3,30.00,SSW,193,5.0,6.0,75,0.00,,OVC,0.00,0.00,VWS V15.00,2013-10-09 11:00:00,
2013-10-09 06:04:00,53.9,46.2,30.00,South,173,0.0,5.0,75,0.00,,SKC,0.00,0.00,VWS V14.01,2013-10-09 11:04:00,
2013-10-09 06:05:00,53.8,46.1,30.00,SSW,195,3.0,5.0,75,0.00,,OVC,0.00,0.00,VWS V15.00,2013-10-09 11:05:00,
2013-10-09 06:09:00,53.8,46.1,30.00,South,184,3.0,8.0,75,0.00,,SKC,0.00,0.00,VWS V14.01,2013-10-09 11:09:00,
2013-10-09 06:10:00,53.9,46.2,30.00,SSW,211,2.0,8.0,75,0.00,,OVC,0.00,0.00,VWS V15.00,2013-10-09 11:10:00,
2013-10-09 06:14:00,53.9,46.2,30.00,SSW,209,4.0,5.0,75,0.00,,SKC,0.00,0.00,VWS V14.01,2013-10-09 11:14:00,
2013-10-09 06:15:00,53.9,45.8,30.00,SW,218,3.0,6.0,74,0.00,,OVC,0.00,0.00,VWS V15.00,2013-10-09 11:15:00,
2013-10-09 06:19:00,53.9,46.2,30.00,SSW,201,2.0,6.0,75,0.00,,SKC,0.00,0.00,VWS V14.01,2013-10-09 11:19:00,
2013-10-09 06:20:00,53.9,46.2,30.00,South,169,4.0,6.0,75,0.00,,OVC,0.00,0.00,VWS V15.00,2013-10-09 11:20:00,
2013-10-09 06:24:00,53.7,46.0,30.00,South,180,3.0,7.0,75,0.00,,SKC,0.00,0.00,VWS V14.01,2013-10-09 11:24:00,
2013-10-09 06:25:00,53.6,46.2,30.00,SSW,195,5.0,7.0,76,0.00,,OVC,0.00,0.00,VWS V15.00,2013-10-09 11:25:00,
2013-10-09 06:29:00,53.4,46.0,30.00,South,171,5.0,5.0,76,0.00,,SKC,0.00,0.00,VWS V14.01,2013-10-09 11:29:00,
2013-10-09 06:30:00,53.4,46.0,30.00,SSW,201,1.0,5.0,76,0.00,,OVC,0.00,0.00,VWS V15.00,2013-10-09 11:30:00,
2013-10-09 06:34:00,53.5,46.1,30.00,SSW,196,5.0,5.0,76,0.00,,SKC,0.00,0.00,VWS V14.01,2013-10-09 11:34:00,
2013-10-09 06:35:00,53.4,46.4,30.00,South,190,4.0,5.0,77,0.00,,OVC,0.00,0.00,VWS V15.00,2013-10-09 11:35:00,
2013-10-09 06:39:00,53.4,46.0,30.00,South,172,3.0,6.0,76,0.00,,SKC,0.00,0.00,VWS V14.01,2013-10-09 11:39:00,
2013-10-09 06:40:00,53.4,46.0,30.00,SSE,164,6.0,6.0,76,0.00,,OVC,0.00,0.00,VWS V15.00,2013-10-09 11:40:00,
2013-10-09 06:44:00,53.6,46.2,30.00,SSW,199,4.0,6.0,76,0.00,,SKC,0.00,0.00,VWS V14.01,2013-10-09 11:44:00,
2013-10-09 06:45:00,53.8,46.4,30.00,SSW,207,4.0,6.0,76,0.00,,OVC,0.00,0.00,VWS V15.00,2013-10-09 11:45:00,
2013-10-09 06:49:00,53.8,46.4,30.00,WSW,241,3.0,6.0,76,0.00,,SKC,0.00,0.00,VWS V14.01,2013-10-09 11:49:00,
2013-10-09 06:50:00,53.8,46.4,30.00,South,186,0.0,6.0,76,0.00,,OVC,0.00,0.00,VWS V15.00,2013-10-09 11:50:00,
2013-10-09 06:54:00,53.8,46.4,30.00,SSW,207,4.0,7.0,76,0.00,,SKC,0.00,0.00,VWS V14.01,2013-10-09 11:54:00,
2013-10-09 06:55:00,53.8,46.4,30.00,South,170,2.0,7.0,76,0.00,,OVC,0.00,0.00,VWS V15.00,2013-10-09 11:55:00,
2013-10-09 06:59:00,53.7,46.3,30.00,SW,234,2.0,7.0,76,0.00,,SKC,0.00,0.00,VWS V14.01,2013-10-09 11:59:00,
2013-10-09 07:00:00,53.7,46.7,30.00,SW,234,3.0,7.0,77,0.00,,OVC,0.00,0.00,VWS V15.00,2013-10-09 12:00:00,
2013-10-09 07:04:00,53.5,46.5,30.00,WSW,242,0.0,7.0,77,0.00,,SKC,0.00,0.00,VWS V14.01,2013-10-09 12:04:00,
2013-10-09 07:05:00,53.5,46.5,30.00,SSE,167,3.0,7.0,77,0.00,,SKC,0.00,0.00,VWS V14.01,2013-10-09 12:05:00,
2013-10-09 07:10:00,53.6,46.2,30.00,WSW,237,4.0,6.0,76,0.00,,SKC,0.00,0.00,VWS V14.01,2013-10-09 12:10:00,
2013-10-09 07:15:00,53.5,46.5,30.00,South,170,2.0,7.0,77,0.00,,SKC,0.00,0.00,VWS V14.01,2013-10-09 12:15:00,
2013-10-09 07:20:00,53.6,46.6,30.00,SW,221,5.0,7.0,77,0.00,,SKC,0.00,7.00,VWS V14.01,2013-10-09 12:20:00,
2013-10-09 07:25:00,53.6,46.6,30.00,South,182,2.0,5.0,77,0.00,,SKC,0.00,11.00,VWS V14.01,2013-10-09 12:25:00,
2013-10-09 07:30:00,53.5,46.5,30.00,SW,214,6.0,6.0,77,0.00,,SKC,0.00,14.00,VWS V14.01,2013-10-09 12:30:00,
2013-10-09 07:35:00,53.7,46.7,30.00,SW,225,3.0,9.0,77,0.00,,SKC,0.00,18.00,VWS V14.01,2013-10-09 12:35:00,
2013-10-09 07:40:00,53.9,46.9,30.00,SSW,213,3.0,7.0,77,0.00,,SKC,0.00,19.00,VWS V14.01,2013-10-09 12:40:00,
2013-10-09 07:45:00,54.0,47.0,30.01,WSW,238,4.0,7.0,77,0.00,,SKC,0.00,26.00,VWS V14.01,2013-10-09 12:45:00,
2013-10-09 07:50:00,54.2,47.2,30.01,SSW,203,5.0,8.0,77,0.00,,SKC,0.00,26.00,VWS V14.01,2013-10-09 12:50:00,
2013-10-09 07:55:00,54.3,46.9,30.01,SW,225,6.0,9.0,76,0.00,,SKC,0.00,26.00,VWS V14.01,2013-10-09 12:55:00,
2013-10-09 08:00:00,54.4,47.0,30.01,SW,217,4.0,8.0,76,0.00,,SKC,0.00,26.00,VWS V14.01,2013-10-09 13:00:00,
2013-10-09 08:05:00,54.4,47.0,30.01,SW,218,2.0,7.0,76,0.00,,SKC,0.00,32.00,VWS V14.01,2013-10-09 13:05:00,
2013-10-09 08:10:00,54.4,47.0,30.01,SSW,205,2.0,9.0,76,0.00,,SKC,0.00,33.00,VWS V14.01,2013-10-09 13:10:00,
2013-10-09 08:15:00,54.5,47.1,30.01,SW,219,3.0,7.0,76,0.00,,SKC,0.00,28.00,VWS V14.01,2013-10-09 13:15:00,
2013-10-09 08:20:00,54.6,47.5,30.01,SW,217,3.0,8.0,77,0.00,,SKC,0.00,25.00,VWS V14.01,2013-10-09 13:20:00,
2013-10-09 08:25:00,54.7,47.3,30.01,SW,227,4.0,8.0,76,0.00,,SKC,0.00,28.00,VWS V14.01,2013-10-09 13:25:00,
2013-10-09 08:30:00,54.8,47.4,30.02,SW,229,5.0,6.0,76,0.00,,OVC,0.00,28.00,VWS V15.00,2013-10-09 13:30:00,
2013-10-09 08:31:00,54.7,47.3,30.02,SW,229,4.0,6.0,76,0.00,,SKC,0.00,26.00,VWS V14.01,2013-10-09 13:31:00,
2013-10-09 08:35:00,54.9,47.5,30.02,SW,215,3.0,7.0,76,0.00,,OVC,0.00,28.00,VWS V15.00,2013-10-09 13:35:00,
2013-10-09 08:36:00,54.9,47.5,30.02,SSW,194,3.0,7.0,76,0.00,,SKC,0.00,28.00,VWS V14.01,2013-10-09 13:36:00,
2013-10-09 08:40:00,55.0,47.6,30.02,WSW,240,7.0,8.0,76,0.00,,OVC,0.00,42.00,VWS V15.00,2013-10-09 13:40:00,
2013-10-09 08:41:00,55.1,47.7,30.02,SW,233,4.0,8.0,76,0.00,,SKC,0.00,42.00,VWS V14.01,2013-10-09 13:41:00,
2013-10-09 08:45:00,55.3,47.9,30.02,SW,227,3.0,9.0,76,0.00,,OVC,0.00,49.00,VWS V15.00,2013-10-09 13:45:00,
2013-10-09 08:46:00,55.2,47.4,30.02,SW,236,3.0,9.0,75,0.00,,SKC,0.00,44.00,VWS V14.01,2013-10-09 13:46:00,
2013-10-09 08:50:00,55.5,48.1,30.02,South,190,5.0,8.0,76,0.00,,OVC,0.00,44.00,VWS V15.00,2013-10-09 13:50:00,
2013-10-09 08:51:00,55.5,48.1,30.02,SSW,192,0.0,8.0,76,0.00,,SKC,0.00,44.00,VWS V14.01,2013-10-09 13:51:00,
2013-10-09 08:55:00,55.7,47.9,30.02,SW,224,4.0,7.0,75,0.00,,OVC,0.00,44.00,VWS V15.00,2013-10-09 13:55:00,
2013-10-09 08:56:00,55.7,47.9,30.02,South,180,4.0,7.0,75,0.00,,SKC,0.00,44.00,VWS V14.01,2013-10-09 13:56:00,
2013-10-09 09:00:00,56.1,47.9,30.02,WSW,238,5.0,9.0,74,0.00,,OVC,0.00,44.00,VWS V15.00,2013-10-09 14:00:00,
2013-10-09 09:01:00,56.1,47.9,30.02,SW,234,3.0,9.0,74,0.00,,SKC,0.00,44.00,VWS V14.01,2013-10-09 14:01:00,
2013-10-09 09:05:00,56.4,48.6,30.02,SW,231,7.0,7.0,75,0.00,,OVC,0.00,58.00,VWS V15.00,2013-10-09 14:05:00,
2013-10-09 09:06:00,56.4,48.6,30.02,SW,235,5.0,7.0,75,0.00,,SKC,0.00,58.00,VWS V14.01,2013-10-09 14:06:00,
2013-10-09 09:10:00,56.7,48.5,30.02,WSW,243,6.0,10.0,74,0.00,,OVC,0.00,67.00,VWS V15.00,2013-10-09 14:10:00,
2013-10-09 09:11:00,56.7,48.5,30.02,WSW,241,7.0,10.0,74,0.00,,SKC,0.00,67.00,VWS V14.01,2013-10-09 14:11:00,
2013-10-09 09:15:00,57.1,48.9,30.02,West,270,6.0,10.0,74,0.00,,OVC,0.00,171.00,VWS V15.00,2013-10-09 14:15:00,
2013-10-09 09:16:00,57.1,48.9,30.02,West,270,10.0,10.0,74,0.00,,SKC,0.00,171.00,VWS V14.01,2013-10-09 14:16:00,
2013-10-09 09:20:00,57.5,48.6,30.02,SW,227,6.0,14.0,72,0.00,,OVC,0.00,128.00,VWS V15.00,2013-10-09 14:20:00,
2013-10-09 09:21:00,57.4,48.5,30.02,SW,220,10.0,14.0,72,0.00,,SKC,0.00,128.00,VWS V14.01,2013-10-09 14:21:00,
2013-10-09 09:25:00,57.8,48.8,30.02,WSW,246,9.0,12.0,72,0.00,,OVC,0.00,155.00,VWS V15.00,2013-10-09 14:25:00,
2013-10-09 09:26:00,57.8,48.8,30.02,WSW,246,9.0,12.0,72,0.00,,SKC,0.00,155.00,VWS V14.01,2013-10-09 14:26:00,
2013-10-09 09:30:00,58.0,49.0,30.02,SSW,210,8.0,14.0,72,0.00,,OVC,0.00,244.00,VWS V15.00,2013-10-09 14:30:00,
2013-10-09 09:31:00,58.0,49.0,30.02,SSW,210,8.0,14.0,72,0.00,,SKC,0.00,244.00,VWS V14.01,2013-10-09 14:31:00,
2013-10-09 09:35:00,58.2,48.8,30.02,SW,234,10.0,16.0,71,0.00,,OVC,0.00,163.00,VWS V15.00,2013-10-09 14:35:00,
2013-10-09 09:36:00,58.2,48.8,30.02,SW,234,10.0,16.0,71,0.00,,SKC,0.00,163.00,VWS V14.01,2013-10-09 14:36:00,
2013-10-09 09:40:00,58.4,49.0,30.02,WSW,244,7.0,13.0,71,0.00,,OVC,0.00,132.00,VWS V15.00,2013-10-09 14:40:00,
2013-10-09 09:41:00,58.4,49.0,30.02,WSW,244,7.0,13.0,71,0.00,,SKC,0.00,132.00,VWS V14.01,2013-10-09 14:41:00,
2013-10-09 09:45:00,58.6,48.9,30.03,WSW,246,8.0,12.0,70,0.00,,OVC,0.00,125.00,VWS V15.00,2013-10-09 14:45:00,
2013-10-09 09:46:00,58.6,48.9,30.03,WSW,246,8.0,12.0,70,0.00,,SKC,0.00,125.00,VWS V14.01,2013-10-09 14:46:00,
2013-10-09 09:50:00,59.0,49.2,30.03,WSW,252,4.0,11.0,70,0.00,,OVC,0.00,141.00,VWS V15.00,2013-10-09 14:50:00,
2013-10-09 09:51:00,59.0,49.2,30.03,WSW,252,4.0,11.0,70,0.00,,SKC,0.00,141.00,VWS V14.01,2013-10-09 14:51:00,
2013-10-09 09:55:00,59.0,49.2,30.03,WSW,241,8.0,17.0,70,0.00,,OVC,0.00,125.00,VWS V15.00,2013-10-09 14:55:00,
2013-10-09 09:56:00,59.0,49.2,30.03,SW,219,7.0,8.0,70,0.00,,SKC,0.00,125.00,VWS V14.01,2013-10-09 14:56:00,
2013-10-09 10:00:00,59.1,49.0,30.03,WSW,242,9.0,15.0,69,0.00,,OVC,0.00,100.00,VWS V15.00,2013-10-09 15:00:00,
2013-10-09 10:01:00,59.1,49.0,30.03,SW,229,5.0,7.0,69,0.00,,SKC,0.00,100.00,VWS V14.01,2013-10-09 15:01:00,
2013-10-09 10:05:00,59.3,49.9,30.03,WSW,238,9.0,12.0,71,0.00,,OVC,0.00,91.00,VWS V15.00,2013-10-09 15:05:00,
2013-10-09 10:06:00,59.3,49.1,30.03,WSW,247,6.0,9.0,69,0.00,,SKC,0.00,91.00,VWS V14.01,2013-10-09 15:06:00,
2013-10-09 10:10:00,59.6,49.4,30.03,WSW,254,12.0,13.0,69,0.00,,OVC,0.00,81.00,VWS V15.00,2013-10-09 15:10:00,
2013-10-09 10:11:00,59.6,49.4,30.03,WSW,250,10.0,12.0,69,0.00,,SKC,0.00,81.00,VWS V14.01,2013-10-09 15:11:00,
2013-10-09 10:15:00,59.9,49.7,30.03,WSW,242,6.0,12.0,69,0.00,,OVC,0.00,257.00,VWS V15.00,2013-10-09 15:15:00,
2013-10-09 10:16:00,59.9,49.7,30.03,West,265,6.0,7.0,69,0.00,,SKC,0.00,257.00,VWS V14.01,2013-10-09 15:16:00,
2013-10-09 10:20:00,60.2,50.0,30.03,WSW,258,10.0,12.0,69,0.00,,OVC,0.00,84.00,VWS V15.00,2013-10-09 15:20:00,
2013-10-09 10:21:00,60.2,50.0,30.03,WSW,248,10.0,10.0,69,0.00,,SKC,0.00,84.00,VWS V14.01,2013-10-09 15:21:00,
2013-10-09 10:25:00,60.5,49.5,30.03,SW,222,11.0,14.0,67,0.00,,OVC,0.00,84.00,VWS V15.00,2013-10-09 15:25:00,
2013-10-09 10:27:00,60.6,49.6,30.03,WSW,240,6.0,11.0,67,0.00,,SKC,0.00,86.00,VWS V14.01,2013-10-09 15:27:00,
2013-10-09 10:30:00,60.9,49.9,30.03,WSW,246,9.0,14.0,67,0.00,,OVC,0.00,93.00,VWS V15.00,2013-10-09 15:30:00,
2013-10-09 10:32:00,60.9,49.9,30.03,SW,236,6.0,9.0,67,0.00,,SKC,0.00,93.00,VWS V14.01,2013-10-09 15:32:00,
2013-10-09 10:35:00,61.2,50.2,30.03,WSW,246,4.0,10.0,67,0.00,,OVC,0.00,93.00,VWS V15.00,2013-10-09 15:35:00,
2013-10-09 10:37:00,61.2,50.2,30.03,SSW,209,5.0,5.0,67,0.00,,SKC,0.00,93.00,VWS V14.01,2013-10-09 15:37:00,
2013-10-09 10:40:00,61.4,50.4,30.03,South,184,5.0,15.0,67,0.00,,OVC,0.00,105.00,VWS V15.00,2013-10-09 15:40:00,
2013-10-09 10:42:00,61.4,50.4,30.03,WSW,257,6.0,10.0,67,0.00,,SKC,0.00,100.00,VWS V14.01,2013-10-09 15:42:00,
2013-10-09 10:45:00,61.9,50.4,30.03,WSW,238,7.0,13.0,66,0.00,,OVC,0.00,98.00,VWS V15.00,2013-10-09 15:45:00,
2013-10-09 10:47:00,61.9,50.4,30.03,WSW,246,8.0,8.0,66,0.00,,SKC,0.00,98.00,VWS V14.01,2013-10-09 15:47:00,
2013-10-09 10:50:00,62.2,50.3,30.03,WSW,245,12.0,16.0,65,0.00,,OVC,0.00,98.00,VWS V15.00,2013-10-09 15:50:00,
2013-10-09 10:52:00,62.2,50.3,30.03,WSW,242,12.0,12.0,65,0.00,,SKC,0.00,322.00,VWS V14.01,2013-10-09 15:52:00,
2013-10-09 10:55:00,62.4,50.5,30.03,SSW,200,5.0,14.0,65,0.00,,OVC,0.00,315.00,VWS V15.00,2013-10-09 15:55:00,
2013-10-09 10:57:00,62.4,50.5,30.03,WSW,253,7.0,8.0,65,0.00,,SKC,0.00,315.00,VWS V14.01,2013-10-09 15:57:00,
2013-10-09 11:00:00,62.5,50.6,30.03,WSW,245,6.0,16.0,65,0.00,,OVC,0.00,547.00,VWS V15.00,2013-10-09 16:00:00,
2013-10-09 11:02:00,62.5,50.6,30.03,WSW,251,10.0,11.0,65,0.00,,SKC,0.00,547.00,VWS V14.01,2013-10-09 16:02:00,
2013-10-09 11:05:00,63.0,50.7,30.03,WSW,237,9.0,11.0,64,0.00,,OVC,0.00,510.00,VWS V15.00,2013-10-09 16:05:00,
2013-10-09 11:07:00,63.1,50.3,30.03,SSW,206,3.0,9.0,63,0.00,,SKC,0.00,580.00,VWS V14.01,2013-10-09 16:07:00,
2013-10-09 11:10:00,63.3,50.5,30.03,SW,232,8.0,11.0,63,0.00,,OVC,0.00,570.00,VWS V15.00,2013-10-09 16:10:00,
2013-10-09 11:12:00,63.4,50.6,30.04,WSW,238,6.0,10.0,63,0.00,,SKC,0.00,561.00,VWS V14.01,2013-10-09 16:12:00,
2013-10-09 11:15:00,63.6,50.8,30.03,WSW,243,14.0,14.0,63,0.00,,OVC,0.00,533.00,VWS V15.00,2013-10-09 16:15:00,
2013-10-09 11:17:00,63.6,50.4,30.04,SW,225,9.0,14.0,62,0.00,,SKC,0.00,533.00,VWS V14.01,2013-10-09 16:17:00,
2013-10-09 11:20:00,63.4,51.0,30.03,WSW,238,6.0,14.0,64,0.00,,OVC,0.00,580.00,VWS V15.00,2013-10-09 16:20:00,
2013-10-09 11:22:00,63.4,51.0,30.03,SW,236,5.0,10.0,64,0.00,,SKC,0.00,587.00,VWS V14.01,2013-10-09 16:22:00,
2013-10-09 11:25:00,63.7,50.9,30.03,WSW,249,9.0,13.0,63,0.00,,OVC,0.00,541.00,VWS V15.00,2013-10-09 16:25:00,
2013-10-09 11:27:00,63.6,50.4,30.03,SW,230,6.0,9.0,62,0.00,,SKC,0.00,582.00,VWS V14.01,2013-10-09 16:27:00,
2013-10-09 11:30:00,63.9,50.6,30.03,WSW,244,16.0,16.0,62,0.00,,OVC,0.00,517.00,VWS V15.00,2013-10-09 16:30:00,
2013-10-09 11:32:00,63.9,51.1,30.03,WSW,244,9.0,16.0,63,0.00,,SKC,0.00,517.00,VWS V14.01,2013-10-09 16:32:00,
2013-10-09 11:35:00,63.9,51.1,30.04,SSW,194,3.0,17.0,63,0.00,,OVC,0.00,592.00,VWS V15.00,2013-10-09 16:35:00,
2013-10-09 11:37:00,64.0,51.2,30.03,WSW,238,5.0,5.0,63,0.00,,SKC,0.00,670.00,VWS V14.01,2013-10-09 16:37:00,
2013-10-09 11:40:00,64.5,51.2,30.04,SW,217,4.0,14.0,62,0.00,,OVC,0.00,682.00,VWS V15.00,2013-10-09 16:40:00,
2013-10-09 11:42:00,64.5,51.2,30.04,SW,230,11.0,11.0,62,0.00,,SKC,0.00,682.00,VWS V14.01,2013-10-09 16:42:00,
2013-10-09 11:45:00,64.5,51.2,30.04,SW,234,9.0,14.0,62,0.00,,OVC,0.00,731.00,VWS V15.00,2013-10-09 16:45:00,
2013-10-09 11:47:00,64.5,50.8,30.03,SSW,207,5.0,9.0,61,0.00,,SKC,0.00,731.00,VWS V14.01,2013-10-09 16:47:00,
2013-10-09 11:50:00,64.9,51.6,30.04,SW,229,10.0,14.0,62,0.00,,OVC,0.00,733.00,VWS V15.00,2013-10-09 16:50:00,
2013-10-09 11:52:00,65.1,51.3,30.04,West,260,9.0,15.0,61,0.00,,SKC,0.00,650.00,VWS V14.01,2013-10-09 16:52:00,
2013-10-09 11:55:00,65.0,51.7,30.03,WSW,243,10.0,15.0,62,0.00,,OVC,0.00,642.00,VWS V15.00,2013-10-09 16:55:00,
2013-10-09 11:57:00,65.0,51.2,30.04,WSW,249,13.0,13.0,61,0.00,,SKC,0.00,622.00,VWS V14.01,2013-10-09 16:57:00,
2013-10-09 12:00:00,65.1,50.9,30.03,WSW,250,15.0,18.0,60,0.00,,OVC,0.00,462.00,VWS V15.00,2013-10-09 17:00:00,
2013-10-09 12:02:00,65.1,50.9,30.04,WSW,250,12.0,15.0,60,0.00,,SKC,0.00,462.00,VWS V14.01,2013-10-09 17:02:00,
2013-10-09 12:05:00,65.2,51.4,30.04,WSW,244,6.0,15.0,61,0.00,,OVC,0.00,647.00,VWS V15.00,2013-10-09 17:05:00,
2013-10-09 12:07:00,65.0,52.1,30.03,WSW,243,4.0,9.0,63,0.00,,SKC,0.00,439.00,VWS V14.01,2013-10-09 17:07:00,
2013-10-09 12:10:00,65.1,51.3,30.03,WSW,250,9.0,15.0,61,0.00,,OVC,0.00,294.00,VWS V15.00,2013-10-09 17:10:00,
2013-10-09 12:12:00,65.1,51.3,30.03,SW,221,4.0,11.0,61,0.00,,SKC,0.00,285.00,VWS V14.01,2013-10-09 17:12:00,
2013-10-09 12:15:00,65.5,51.7,30.03,SSW,196,6.0,12.0,61,0.00,,OVC,0.00,624.00,VWS V15.00,2013-10-09 17:15:00,
2013-10-09 12:17:00,65.7,51.9,30.03,SW,234,8.0,10.0,61,0.00,,SKC,0.00,624.00,VWS V14.01,2013-10-09 17:17:00,
2013-10-09 12:20:00,65.9,52.1,30.03,West,260,8.0,10.0,61,0.00,,OVC,0.00,580.00,VWS V15.00,2013-10-09 17:20:00,
2013-10-09 12:22:00,65.8,52.0,30.03,WSW,254,10.0,12.0,61,0.00,,SKC,0.00,603.00,VWS V14.01,2013-10-09 17:22:00,
2013-10-09 12:25:00,65.7,51.9,30.03,South,190,3.0,15.0,61,0.00,,OVC,0.00,629.00,VWS V15.00,2013-10-09 17:25:00,
2013-10-09 12:27:00,65.9,52.1,30.03,WSW,250,8.0,12.0,61,0.00,,SKC,0.00,640.00,VWS V14.01,2013-10-09 17:27:00,
2013-10-09 12:30:00,66.2,52.4,30.03,SW,234,8.0,12.0,61,0.00,,OVC,0.00,596.00,VWS V15.00,2013-10-09 17:30:00,
2013-10-09 12:32:00,66.2,51.9,30.03,SE,143,4.0,8.0,60,0.00,,SKC,0.00,642.00,VWS V14.01,2013-10-09 17:32:00,
2013-10-09 12:35:00,66.7,52.4,30.03,SSW,212,5.0,16.0,60,0.00,,OVC,0.00,645.00,VWS V15.00,2013-10-09 17:35:00,
2013-10-09 12:37:00,66.7,51.9,30.03,SSW,194,6.0,14.0,59,0.00,,SKC,0.00,647.00,VWS V14.01,2013-10-09 17:37:00,
2013-10-09 12:40:00,66.5,51.8,30.03,WSW,247,12.0,17.0,59,0.00,,OVC,0.00,647.00,VWS V15.00,2013-10-09 17:40:00,
2013-10-09 12:42:00,66.4,52.1,30.03,WSW,244,12.0,13.0,60,0.00,,SKC,0.00,643.00,VWS V14.01,2013-10-09 17:42:00,
2013-10-09 12:45:00,66.0,51.7,30.03,WSW,244,10.0,14.0,60,0.00,,OVC,0.00,647.00,VWS V15.00,2013-10-09 17:45:00,
2013-10-09 12:47:00,65.9,52.1,30.03,West,261,8.0,12.0,61,0.00,,SKC,0.00,647.00,VWS V14.01,2013-10-09 17:47:00,
2013-10-09 12:50:00,66.3,52.5,30.03,South,181,8.0,13.0,61,0.00,,OVC,0.00,647.00,VWS V15.00,2013-10-09 17:50:00,
2013-10-09 12:52:00,66.5,52.2,30.03,SW,232,9.0,17.0,60,0.00,,SKC,0.00,649.00,VWS V14.01,2013-10-09 17:52:00,
2013-10-09 12:55:00,66.3,52.0,30.03,WSW,247,10.0,17.0,60,0.00,,OVC,0.00,650.00,VWS V15.00,2013-10-09 17:55:00,
2013-10-09 12:57:00,66.3,52.0,30.03,WSW,257,15.0,15.0,60,0.00,,SKC,0.00,650.00,VWS V14.01,2013-10-09 17:57:00,
2013-10-09 13:00:00,66.7,52.4,30.03,West,259,9.0,15.0,60,0.00,,OVC,0.00,650.00,VWS V15.00,2013-10-09 18:00:00,
2013-10-09 13:03:00,66.8,52.0,30.03,WSW,252,15.0,17.0,59,0.00,,SKC,0.00,650.00,VWS V14.01,2013-10-09 18:03:00,
2013-10-09 13:05:00,66.8,52.5,30.03,WSW,248,16.0,17.0,60,0.00,,OVC,0.00,650.00,VWS V15.00,2013-10-09 18:05:00,
2013-10-09 13:08:00,66.7,52.4,30.02,SW,227,7.0,16.0,60,0.00,,SKC,0.00,650.00,VWS V14.01,2013-10-09 18:08:00,
2013-10-09 13:10:00,66.8,52.0,30.03,SW,217,9.0,16.0,59,0.00,,OVC,0.00,650.00,VWS V15.00,2013-10-09 18:10:00,
2013-10-09 13:13:00,67.1,51.8,30.02,WSW,256,11.0,11.0,58,0.00,,SKC,0.00,647.00,VWS V14.01,2013-10-09 18:13:00,
2013-10-09 13:15:00,67.3,52.0,30.02,WSW,250,7.0,16.0,58,0.00,,OVC,0.00,654.00,VWS V15.00,2013-10-09 18:15:00,
2013-10-09 13:18:00,67.5,52.2,30.02,West,259,8.0,10.0,58,0.00,,SKC,0.00,652.00,VWS V14.01,2013-10-09 18:18:00,
2013-10-09 13:20:00,67.8,52.0,30.02,West,271,9.0,13.0,57,0.00,,OVC,0.00,652.00,VWS V15.00,2013-10-09 18:20:00,
2013-10-09 13:23:00,67.8,52.5,30.02,WSW,246,10.0,15.0,58,0.00,,SKC,0.00,652.00,VWS V14.01,2013-10-09 18:23:00,
2013-10-09 13:25:00,67.7,52.4,30.02,WSW,248,10.0,17.0,58,0.00,,OVC,0.00,649.00,VWS V15.00,2013-10-09 18:25:00,
2013-10-09 13:28:00,67.7,52.4,30.02,SW,236,5.0,13.0,58,0.00,,SKC,0.00,642.00,VWS V14.01,2013-10-09 18:28:00,
2013-10-09 13:30:00,68.3,52.5,30.02,West,261,2.0,13.0,57,0.00,,OVC,0.00,631.00,VWS V15.00,2013-10-09 18:30:00,
2013-10-09 13:33:00,68.3,52.5,30.02,WSW,240,4.0,10.0,57,0.00,,SKC,0.00,645.00,VWS V14.01,2013-10-09 18:33:00,
2013-10-09 13:35:00,68.5,52.2,30.02,WSW,241,13.0,13.0,56,0.00,,OVC,0.00,647.00,VWS V15.00,2013-10-09 18:35:00,
2013-10-09 13:38:00,68.4,52.1,30.02,SW,234,3.0,14.0,56,0.00,,SKC,0.00,649.00,VWS V14.01,2013-10-09 18:38:00,
2013-10-09 13:40:00,68.3,52.5,30.02,WSW,242,12.0,14.0,57,0.00,,OVC,0.00,429.00,VWS V15.00,2013-10-09 18:40:00,
2013-10-09 13:43:00,68.1,52.8,30.02,WSW,248,9.0,13.0,58,0.00,,SKC,0.00,350.00,VWS V14.01,2013-10-09 18:43:00,
2013-10-09 13:45:00,67.9,53.1,30.02,WSW,243,8.0,16.0,59,0.00,,OVC,0.00,345.00,VWS V15.00,2013-10-09 18:45:00,
2013-10-09 13:48:00,68.0,52.7,30.02,WSW,237,4.0,10.0,58,0.00,,SKC,0.00,657.00,VWS V14.01,2013-10-09 18:48:00,
2013-10-09 13:50:00,68.1,52.8,30.02,WSW,240,7.0,11.0,58,0.00,,OVC,0.00,650.00,VWS V15.00,2013-10-09 18:50:00,
2013-10-09 13:53:00,68.4,52.6,30.02,West,261,7.0,9.0,57,0.00,,SKC,0.00,638.00,VWS V14.01,2013-10-09 18:53:00,
2013-10-09 13:55:00,68.4,52.6,30.01,WSW,243,10.0,14.0,57,0.00,,OVC,0.00,643.00,VWS V15.00,2013-10-09 18:55:00,
2013-10-09 13:58:00,68.4,52.6,30.01,WSW,249,8.0,11.0,57,0.00,,SKC,0.00,635.00,VWS V14.01,2013-10-09 18:58:00,
2013-10-09 14:00:00,68.5,52.2,30.02,SSW,213,4.0,16.0,56,0.00,,OVC,0.00,633.00,VWS V15.00,2013-10-09 19:00:00,
2013-10-09 14:03:00,68.6,52.8,30.01,South,177,7.0,10.0,57,0.00,,SKC,0.00,631.00,VWS V14.01,2013-10-09 19:03:00,
2013-10-09 14:05:00,69.2,53.3,30.01,WSW,250,2.0,14.0,57,0.00,,OVC,0.00,629.00,VWS V15.00,2013-10-09 19:05:00,
2013-10-09 14:08:00,69.2,53.3,30.01,WSW,246,3.0,10.0,57,0.00,,SKC,0.00,631.00,VWS V14.01,2013-10-09 19:08:00,
2013-10-09 14:10:00,69.2,52.8,30.01,South,171,14.0,14.0,56,0.00,,OVC,0.00,566.00,VWS V15.00,2013-10-09 19:10:00,
2013-10-09 14:13:00,69.2,53.3,30.01,SE,142,9.0,14.0,57,0.00,,SKC,0.00,515.00,VWS V14.01,2013-10-09 19:13:00,
2013-10-09 14:15:00,69.4,53.0,30.01,SSW,197,5.0,14.0,56,0.00,,OVC,0.00,631.00,VWS V15.00,2013-10-09 19:15:00,
2013-10-09 14:18:00,69.3,53.0,30.01,South,180,3.0,10.0,56,0.00,,SKC,0.00,629.00,VWS V14.01,2013-10-09 19:18:00,
2013-10-09 14:20:00,69.2,52.8,30.01,SSE,163,4.0,17.0,56,0.00,,OVC,0.00,615.00,VWS V15.00,2013-10-09 19:20:00,
2013-10-09 14:23:00,69.4,53.0,30.01,South,170,5.0,9.0,56,0.00,,SKC,0.00,610.00,VWS V14.01,2013-10-09 19:23:00,
2013-10-09 14:25:00,69.2,53.3,30.01,SW,234,6.0,11.0,57,0.00,,OVC,0.00,605.00,VWS V15.00,2013-10-09 19:25:00,
2013-10-09 14:28:00,69.1,53.2,30.01,SW,215,8.0,9.0,57,0.00,,SKC,0.00,601.00,VWS V14.01,2013-10-09 19:28:00,
2013-10-09 14:30:00,69.3,53.0,30.01,South,182,6.0,16.0,56,0.00,,OVC,0.00,594.00,VWS V15.00,2013-10-09 19:30:00,
2013-10-09 14:33:00,69.3,53.0,30.01,West,272,8.0,10.0,56,0.00,,SKC,0.00,591.00,VWS V14.01,2013-10-09 19:33:00,
2013-10-09 14:35:00,69.5,52.6,30.02,South,178,2.0,12.0,55,0.00,,OVC,0.00,585.00,VWS V15.00,2013-10-09 19:35:00,
2013-10-09 14:38:00,69.7,52.8,30.01,WNW,289,8.0,14.0,55,0.00,,SKC,0.00,582.00,VWS V14.01,2013-10-09 19:38:00,
2013-10-09 14:40:00,69.7,52.8,30.02,WSW,243,9.0,14.0,55,0.00,,OVC,0.00,578.00,VWS V15.00,2013-10-09 19:40:00,
2013-10-09 14:43:00,69.7,52.8,30.02,WSW,243,9.0,12.0,55,0.00,,SKC,0.00,575.00,VWS V14.01,2013-10-09 19:43:00,
2013-10-09 14:45:00,69.6,52.7,30.01,SW,234,7.0,12.0,55,0.00,,OVC,0.00,570.00,VWS V15.00,2013-10-09 19:45:00,
2013-10-09 14:48:00,69.6,53.2,30.01,SW,215,8.0,11.0,56,0.00,,SKC,0.00,566.00,VWS V14.01,2013-10-09 19:48:00,
2013-10-09 14:50:00,69.6,52.7,30.01,SW,215,4.0,13.0,55,0.00,,OVC,0.00,561.00,VWS V15.00,2013-10-09 19:50:00,
2013-10-09 14:53:00,69.7,52.8,30.02,SW,217,8.0,12.0,55,0.00,,SKC,0.00,555.00,VWS V14.01,2013-10-09 19:53:00,
2013-10-09 14:55:00,69.7,53.3,30.02,South,174,6.0,12.0,56,0.00,,OVC,0.00,552.00,VWS V15.00,2013-10-09 19:55:00,
2013-10-09 14:58:00,69.8,52.9,30.01,WSW,247,6.0,15.0,55,0.00,,SKC,0.00,548.00,VWS V14.01,2013-10-09 19:58:00,
2013-10-09 15:00:00,70.1,52.7,30.01,SSW,194,6.0,15.0,54,0.00,,OVC,0.00,543.00,VWS V15.00,2013-10-09 20:00:00,
2013-10-09 15:03:00,70.2,52.8,30.02,WSW,241,6.0,11.0,54,0.00,,SKC,0.00,543.00,VWS V14.01,2013-10-09 20:03:00,
2013-10-09 15:05:00,70.1,53.2,30.02,WSW,238,6.0,12.0,55,0.00,,OVC,0.00,534.00,VWS V15.00,2013-10-09 20:05:00,
2013-10-09 15:08:00,70.2,53.3,30.01,WSW,242,5.0,11.0,55,0.00,,SKC,0.00,531.00,VWS V14.01,2013-10-09 20:08:00,
2013-10-09 15:10:00,70.4,53.5,30.02,SSE,168,9.0,14.0,55,0.00,,OVC,0.00,524.00,VWS V15.00,2013-10-09 20:10:00,
2013-10-09 15:13:00,70.5,52.6,30.02,SW,214,7.0,11.0,53,0.00,,SKC,0.00,519.00,VWS V14.01,2013-10-09 20:13:00,
2013-10-09 15:15:00,70.4,52.5,30.01,WSW,246,4.0,15.0,53,0.00,,OVC,0.00,512.00,VWS V15.00,2013-10-09 20:15:00,
2013-10-09 15:18:00,70.3,52.4,30.02,SSW,211,7.0,13.0,53,0.00,,SKC,0.00,510.00,VWS V14.01,2013-10-09 20:18:00,
2013-10-09 15:20:00,70.3,52.9,30.02,South,186,6.0,13.0,54,0.00,,OVC,0.00,504.00,VWS V15.00,2013-10-09 20:20:00,
2013-10-09 15:23:00,70.1,52.7,30.02,WSW,242,8.0,9.0,54,0.00,,SKC,0.00,499.00,VWS V14.01,2013-10-09 20:23:00,
2013-10-09 15:25:00,70.2,52.3,30.01,SW,219,5.0,12.0,53,0.00,,OVC,0.00,492.00,VWS V15.00,2013-10-09 20:25:00,
2013-10-09 15:28:00,70.2,52.3,30.02,WSW,244,6.0,12.0,53,0.00,,SKC,0.00,487.00,VWS V14.01,2013-10-09 20:28:00,
2013-10-09 15:30:00,70.4,52.0,30.02,SW,219,3.0,15.0,52,0.00,,OVC,0.00,483.00,VWS V15.00,2013-10-09 20:30:00,
2013-10-09 15:33:00,70.4,53.0,30.01,South,177,5.0,13.0,54,0.00,,SKC,0.00,478.00,VWS V14.01,2013-10-09 20:33:00,
2013-10-09 15:35:00,70.5,52.0,30.02,SW,234,9.0,15.0,52,0.00,,OVC,0.00,471.00,VWS V15.00,2013-10-09 20:35:00,
2013-10-09 15:38:00,70.5,52.0,30.02,WSW,248,7.0,11.0,52,0.00,,SKC,0.00,468.00,VWS V14.01,2013-10-09 20:38:00,
2013-10-09 15:40:00,70.4,52.5,30.01,WSW,246,6.0,11.0,53,0.00,,OVC,0.00,461.00,VWS V15.00,2013-10-09 20:40:00,
2013-10-09 15:43:00,70.3,52.4,30.01,SSW,213,2.0,13.0,53,0.00,,SKC,0.00,457.00,VWS V14.01,2013-10-09 20:43:00,
2013-10-09 15:45:00,70.7,52.8,30.01,ESE,123,9.0,13.0,53,0.00,,OVC,0.00,446.00,VWS V15.00,2013-10-09 20:45:00,
2013-10-09 15:48:00,70.6,52.7,30.01,SW,234,7.0,12.0,53,0.00,,SKC,0.00,441.00,VWS V14.01,2013-10-09 20:48:00,
2013-10-09 15:50:00,70.7,52.2,30.01,South,188,9.0,12.0,52,0.00,,OVC,0.00,434.00,VWS V15.00,2013-10-09 20:50:00,
2013-10-09 15:54:00,70.6,51.6,30.01,SW,233,9.0,11.0,51,0.00,,SKC,0.00,429.00,VWS V14.01,2013-10-09 20:54:00,
2013-10-09 15:55:00,70.7,51.7,30.01,SW,214,8.0,11.0,51,0.00,,OVC,0.00,422.00,VWS V15.00,2013-10-09 20:55:00,
2013-10-09 15:59:00,70.6,52.1,30.02,SW,221,6.0,10.0,52,0.00,,SKC,0.00,415.00,VWS V14.01,2013-10-09 20:59:00,
2013-10-09 16:00:00,70.7,51.7,30.01,South,190,5.0,14.0,51,0.00,,OVC,0.00,411.00,VWS V15.00,2013-10-09 21:00:00,
2013-10-09 16:04:00,70.7,50.6,30.02,West,263,9.0,13.0,49,0.00,,SKC,0.00,404.00,VWS V14.01,2013-10-09 21:04:00,
2013-10-09 16:05:00,70.6,51.1,30.01,SW,221,6.0,13.0,50,0.00,,OVC,0.00,399.00,VWS V15.00,2013-10-09 21:05:00,
2013-10-09 16:09:00,70.6,51.1,30.02,WSW,245,10.0,11.0,50,0.00,,SKC,0.00,394.00,VWS V14.01,2013-10-09 21:09:00,
2013-10-09 16:10:00,70.5,51.5,30.02,WSW,237,11.0,13.0,51,0.00,,OVC,0.00,383.00,VWS V15.00,2013-10-09 21:10:00,
2013-10-09 16:14:00,70.3,51.3,30.02,SW,233,4.0,17.0,51,0.00,,SKC,0.00,376.00,VWS V14.01,2013-10-09 21:14:00,
2013-10-09 16:15:00,70.5,51.5,30.02,SW,217,5.0,17.0,51,0.00,,OVC,0.00,369.00,VWS V15.00,2013-10-09 21:15:00,
2013-10-09 16:19:00,70.4,51.4,30.02,SW,226,10.0,14.0,51,0.00,,SKC,0.00,366.00,VWS V14.01,2013-10-09 21:19:00,
2013-10-09 16:20:00,70.5,52.0,30.02,WSW,240,14.0,14.0,52,0.00,,OVC,0.00,355.00,VWS V15.00,2013-10-09 21:20:00,
2013-10-09 16:24:00,70.5,52.0,30.02,WSW,240,6.0,14.0,52,0.00,,SKC,0.00,352.00,VWS V14.01,2013-10-09 21:24:00,
2013-10-09 16:25:00,70.6,52.1,30.01,SSW,209,8.0,14.0,52,0.00,,OVC,0.00,343.00,VWS V15.00,2013-10-09 21:25:00,
2013-10-09 16:29:00,70.9,51.3,30.02,SSW,196,3.0,17.0,50,0.00,,SKC,0.00,339.00,VWS V14.01,2013-10-09 21:29:00,
2013-10-09 16:30:00,70.8,51.3,30.02,SW,216,5.0,17.0,50,0.00,,OVC,0.00,329.00,VWS V15.00,2013-10-09 21:30:00,
2013-10-09 16:34:00,70.8,52.3,30.02,WSW,252,8.0,13.0,52,0.00,,SKC,0.00,323.00,VWS V14.01,2013-10-09 21:34:00,
2013-10-09 16:35:00,70.7,50.6,30.02,SSW,211,4.0,13.0,49,0.00,,OVC,0.00,315.00,VWS V15.00,2013-10-09 21:35:00,
2013-10-09 16:39:00,70.7,51.2,30.02,SSW,198,4.0,10.0,50,0.00,,SKC,0.00,308.00,VWS V14.01,2013-10-09 21:39:00,
2013-10-09 16:40:00,70.7,51.2,30.02,SW,222,6.0,14.0,50,0.00,,OVC,0.00,301.00,VWS V15.00,2013-10-09 21:40:00,
2013-10-09 16:44:00,70.6,51.1,30.02,SW,230,10.0,10.0,50,0.00,,SKC,0.00,294.00,VWS V14.01,2013-10-09 21:44:00,
2013-10-09 16:45:00,70.5,52.0,30.02,SW,232,5.0,10.0,52,0.00,,OVC,0.00,318.00,VWS V15.00,2013-10-09 21:45:00,
2013-10-09 16:49:00,70.6,51.1,30.02,WSW,238,8.0,9.0,50,0.00,,SKC,0.00,285.00,VWS V14.01,2013-10-09 21:49:00,
2013-10-09 16:50:00,70.7,50.6,30.02,SW,224,6.0,12.0,49,0.00,,OVC,0.00,274.00,VWS V15.00,2013-10-09 21:50:00,
2013-10-09 16:54:00,70.5,51.5,30.02,WSW,246,5.0,11.0,51,0.00,,SKC,0.00,264.00,VWS V14.01,2013-10-09 21:54:00,
2013-10-09 16:55:00,70.4,50.9,30.02,SW,229,5.0,11.0,50,0.00,,OVC,0.00,257.00,VWS V15.00,2013-10-09 21:55:00,
2013-10-09 16:59:00,70.4,50.9,30.02,South,172,4.0,6.0,50,0.00,,SKC,0.00,248.00,VWS V14.01,2013-10-09 21:59:00,
2013-10-09 17:00:00,70.5,51.5,30.02,SW,219,5.0,7.0,51,0.00,,OVC,0.00,237.00,VWS V15.00,2013-10-09 22:00:00,
2013-10-09 17:04:00,70.4,51.4,30.02,WSW,256,5.0,11.0,51,0.00,,SKC,0.00,232.00,VWS V14.01,2013-10-09 22:04:00,
2013-10-09 17:05:00,70.4,51.4,30.02,SW,233,4.0,11.0,51,0.00,,OVC,0.00,223.00,VWS V15.00,2013-10-09 22:05:00,
2013-10-09 17:09:00,70.3,50.8,30.02,WSW,252,11.0,13.0,50,0.00,,SKC,0.00,211.00,VWS V14.01,2013-10-09 22:09:00,
2013-10-09 17:10:00,70.2,50.7,30.02,SW,221,3.0,14.0,50,0.00,,OVC,0.00,204.00,VWS V15.00,2013-10-09 22:10:00,
2013-10-09 17:14:00,70.2,50.7,30.02,SW,229,5.0,14.0,50,0.00,,SKC,0.00,190.00,VWS V14.01,2013-10-09 22:14:00,
2013-10-09 17:15:00,70.0,50.5,30.02,WSW,249,4.0,14.0,50,0.00,,OVC,0.00,185.00,VWS V15.00,2013-10-09 22:15:00,
2013-10-09 17:19:00,69.8,50.9,30.02,South,191,13.0,13.0,51,0.00,,SKC,0.00,174.00,VWS V14.01,2013-10-09 22:19:00,
2013-10-09 17:20:00,69.8,50.3,30.02,WSW,240,5.0,13.0,50,0.00,,OVC,0.00,169.00,VWS V15.00,2013-10-09 22:20:00,
2013-10-09 17:24:00,69.7,50.8,30.02,SW,236,6.0,10.0,51,0.00,,SKC,0.00,158.00,VWS V14.01,2013-10-09 22:24:00,
2013-10-09 17:25:00,69.6,51.2,30.02,SW,234,4.0,10.0,52,0.00,,OVC,0.00,163.00,VWS V15.00,2013-10-09 22:25:00,
2013-10-09 17:29:00,69.6,50.2,30.02,WSW,246,7.0,10.0,50,0.00,,SKC,0.00,144.00,VWS V14.01,2013-10-09 22:29:00,
2013-10-09 17:30:00,69.6,50.7,30.02,SW,228,4.0,10.0,51,0.00,,OVC,0.00,139.00,VWS V15.00,2013-10-09 22:30:00,
2013-10-09 17:34:00,69.5,50.6,30.02,WSW,240,7.0,9.0,51,0.00,,SKC,0.00,132.00,VWS V14.01,2013-10-09 22:34:00,
2013-10-09 17:35:00,69.4,51.0,30.02,WSW,256,7.0,11.0,52,0.00,,OVC,0.00,120.00,VWS V15.00,2013-10-09 22:35:00,
2013-10-09 17:39:00,69.3,50.9,30.02,SW,225,3.0,9.0,52,0.00,,SKC,0.00,109.00,VWS V14.01,2013-10-09 22:39:00,
2013-10-09 17:40:00,69.4,51.0,30.02,SW,225,4.0,9.0,52,0.00,,OVC,0.00,105.00,VWS V15.00,2013-10-09 22:40:00,
2013-10-09 17:44:00,69.3,50.9,30.02,WSW,239,5.0,11.0,52,0.00,,SKC,0.00,91.00,VWS V14.01,2013-10-09 22:44:00,
2013-10-09 17:45:00,69.2,51.4,30.02,SW,227,4.0,11.0,53,0.00,,OVC,0.00,83.00,VWS V15.00,2013-10-09 22:45:00,
2013-10-09 17:49:00,68.9,51.6,30.02,WSW,238,5.0,10.0,54,0.00,,SKC,0.00,74.00,VWS V14.01,2013-10-09 22:49:00,
2013-10-09 17:50:00,68.9,51.6,30.02,SW,225,5.0,10.0,54,0.00,,OVC,0.00,69.00,VWS V15.00,2013-10-09 22:50:00,
2013-10-09 17:55:00,68.7,51.4,30.02,SW,225,4.0,8.0,54,0.00,,SKC,0.00,53.00,VWS V14.01,2013-10-09 22:55:00,
2013-10-09 18:00:00,68.4,50.6,30.02,SW,231,3.0,6.0,53,0.00,,SKC,0.00,30.00,VWS V14.01,2013-10-09 23:00:00,
2013-10-09 18:05:00,68.0,50.8,30.02,SSW,196,3.0,8.0,54,0.00,,SKC,0.00,33.00,VWS V14.01,2013-10-09 23:05:00,
2013-10-09 18:10:00,67.5,51.3,30.02,SW,221,2.0,4.0,56,0.00,,SKC,0.00,23.00,VWS V14.01,2013-10-09 23:10:00,
2013-10-09 18:15:00,66.8,51.6,30.02,South,184,2.0,7.0,58,0.00,,SKC,0.00,16.00,VWS V14.01,2013-10-09 23:15:00,
2013-10-09 18:20:00,66.1,51.8,30.02,WSW,249,3.0,7.0,60,0.00,,SKC,0.00,11.00,VWS V14.01,2013-10-09 23:20:00,
2013-10-09 18:25:00,65.6,51.8,30.02,SSW,209,2.0,6.0,61,0.00,,SKC,0.00,5.00,VWS V14.01,2013-10-09 23:25:00,
2013-10-09 18:30:00,65.5,51.7,30.02,SSW,201,3.0,6.0,61,0.00,,SKC,0.00,0.00,VWS V14.01,2013-10-09 23:30:00,
2013-10-09 18:35:00,65.3,52.0,30.02,SSW,203,7.0,8.0,62,0.00,,SKC,0.00,0.00,VWS V14.01,2013-10-09 23:35:00,
2013-10-09 18:40:00,65.1,52.2,30.02,SW,217,4.0,5.0,63,0.00,,SKC,0.00,0.00,VWS V14.01,2013-10-09 23:40:00,
2013-10-09 18:45:00,64.7,52.3,30.03,SSW,192,5.0,6.0,64,0.00,,SKC,0.00,0.00,VWS V14.01,2013-10-09 23:45:00,
2013-10-09 18:50:00,64.4,51.5,30.03,SSW,213,0.0,7.0,63,0.00,,SKC,0.00,0.00,VWS V14.01,2013-10-09 23:50:00,
2013-10-09 18:55:00,64.1,51.7,30.03,SSW,196,0.0,5.0,64,0.00,,SKC,0.00,0.00,VWS V14.01,2013-10-09 23:55:00,
2013-10-09 19:00:00,63.6,51.6,30.03,SSW,205,0.0,5.0,65,0.00,,SKC,0.00,0.00,VWS V14.01,2013-10-10 00:00:00,
2013-10-09 19:05:00,63.2,51.2,30.03,SW,223,2.0,5.0,65,0.00,,SKC,0.00,0.00,VWS V14.01,2013-10-10 00:05:00,
2013-10-09 19:10:00,63.1,51.2,30.03,SSW,212,4.0,6.0,65,0.00,,SKC,0.00,0.00,VWS V14.01,2013-10-10 00:10:00,
2013-10-09 19:15:00,63.2,51.2,30.03,SW,225,3.0,5.0,65,0.00,,SKC,0.00,0.00,VWS V14.01,2013-10-10 00:15:00,
2013-10-09 19:20:00,63.1,51.2,30.03,SW,227,3.0,6.0,65,0.00,,SKC,0.00,0.00,VWS V14.01,2013-10-10 00:20:00,
2013-10-09 19:25:00,63.0,51.1,30.03,SW,215,0.0,6.0,65,0.00,,SKC,0.00,0.00,VWS V14.01,2013-10-10 00:25:00,
2013-10-09 19:30:00,62.5,51.0,30.03,SSW,202,4.0,5.0,66,0.00,,SKC,0.00,0.00,VWS V14.01,2013-10-10 00:30:00,
2013-10-09 19:35:00,62.3,50.8,30.03,SSW,192,5.0,7.0,66,0.00,,SKC,0.00,0.00,VWS V14.01,2013-10-10 00:35:00,
2013-10-09 19:40:00,62.2,50.7,30.03,SSW,208,2.0,6.0,66,0.00,,SKC,0.00,0.00,VWS V14.01,2013-10-10 00:40:00,
2013-10-09 19:45:00,62.0,50.9,30.03,SSW,204,2.0,6.0,67,0.00,,SKC,0.00,0.00,VWS V14.01,2013-10-10 00:45:00,
2013-10-09 19:50:00,62.1,51.0,30.03,SSW,196,4.0,7.0,67,0.00,,SKC,0.00,0.00,VWS V14.01,2013-10-10 00:50:00,
2013-10-09 19:55:00,62.0,50.9,30.03,SSW,213,2.0,5.0,67,0.00,,SKC,0.00,0.00,VWS V14.01,2013-10-10 00:55:00,
2013-10-09 20:00:00,61.6,51.3,30.03,SW,228,3.0,5.0,69,0.00,,OVC,0.00,0.00,VWS V15.00,2013-10-10 01:00:00,
2013-10-09 20:01:00,61.7,51.0,30.03,SW,217,1.0,5.0,68,0.00,,SKC,0.00,0.00,VWS V14.01,2013-10-10 01:01:00,
2013-10-09 20:05:00,61.8,51.1,30.03,SSW,200,1.0,5.0,68,0.00,,OVC,0.00,0.00,VWS V15.00,2013-10-10 01:05:00,
2013-10-09 20:06:00,61.7,51.0,30.03,SSW,200,2.0,5.0,68,0.00,,SKC,0.00,0.00,VWS V14.01,2013-10-10 01:06:00,
2013-10-09 20:10:00,61.6,51.0,30.03,SSW,192,3.0,4.0,68,0.00,,OVC,0.00,0.00,VWS V15.00,2013-10-10 01:10:00,
2013-10-09 20:11:00,61.6,50.5,30.03,South,184,3.0,4.0,67,0.00,,SKC,0.00,0.00,VWS V14.01,2013-10-10 01:11:00,
2013-10-09 20:15:00,61.2,51.0,30.03,South,183,1.0,5.0,69,0.00,,OVC,0.00,0.00,VWS V15.00,2013-10-10 01:15:00,
2013-10-09 20:16:00,61.3,51.1,30.03,SSW,211,3.0,4.0,69,0.00,,SKC,0.00,0.00,VWS V14.01,2013-10-10 01:16:00,
2013-10-09 20:20:00,61.1,50.5,30.03,SSW,203,3.0,5.0,68,0.00,,OVC,0.00,0.00,VWS V15.00,2013-10-10 01:20:00,
2013-10-09 20:21:00,61.1,50.5,30.03,SSW,200,2.0,5.0,68,0.00,,SKC,0.00,0.00,VWS V14.01,2013-10-10 01:21:00,
2013-10-09 20:25:00,61.0,50.8,30.03,SSW,208,3.0,5.0,69,0.00,,OVC,0.00,0.00,VWS V15.00,2013-10-10 01:25:00,
2013-10-09 20:26:00,61.0,50.8,30.03,SSW,208,1.0,5.0,69,0.00,,SKC,0.00,0.00,VWS V14.01,2013-10-10 01:26:00,
2013-10-09 20:30:00,61.0,50.8,30.03,SSW,211,1.0,6.0,69,0.00,,OVC,0.00,0.00,VWS V15.00,2013-10-10 01:30:00,
2013-10-09 20:31:00,61.0,50.8,30.03,SSW,211,3.0,6.0,69,0.00,,SKC,0.00,0.00,VWS V14.01,2013-10-10 01:31:00,
2013-10-09 20:35:00,60.8,51.0,30.03,SSW,201,4.0,4.0,70,0.00,,OVC,0.00,0.00,VWS V15.00,2013-10-10 01:35:00,
2013-10-09 20:36:00,60.8,51.0,30.03,SSW,198,3.0,4.0,70,0.00,,SKC,0.00,0.00,VWS V14.01,2013-10-10 01:36:00,
2013-10-09 20:40:00,60.4,50.6,30.03,SSW,200,0.0,5.0,70,0.00,,OVC,0.00,0.00,VWS V15.00,2013-10-10 01:40:00,
2013-10-09 20:41:00,60.4,50.6,30.03,SSW,200,0.0,5.0,70,0.00,,SKC,0.00,0.00,VWS V14.01,2013-10-10 01:41:00,
2013-10-09 20:45:00,60.2,50.4,30.03,SSW,203,0.0,3.0,70,0.00,,OVC,0.00,0.00,VWS V15.00,2013-10-10 01:45:00,
2013-10-09 20:46:00,60.2,50.4,30.03,SSW,203,0.0,3.0,70,0.00,,SKC,0.00,0.00,VWS V14.01,2013-10-10 01:46:00,
2013-10-09 20:50:00,59.8,50.4,30.04,SSW,195,2.0,6.0,71,0.00,,OVC,0.00,0.00,VWS V15.00,2013-10-10 01:50:00,
2013-10-09 20:51:00,59.8,50.4,30.04,SSW,195,2.0,6.0,71,0.00,,SKC,0.00,0.00,VWS V14.01,2013-10-10 01:51:00,
2013-10-09 20:55:00,59.9,50.5,30.04,SSW,192,1.0,4.0,71,0.00,,OVC,0.00,0.00,VWS V15.00,2013-10-10 01:55:00,
2013-10-09 20:56:00,59.9,50.5,30.04,SSW,192,0.0,4.0,71,0.00,,SKC,0.00,0.00,VWS V14.01,2013-10-10 01:56:00,
2013-10-09 21:00:00,59.5,50.1,30.03,South,186,0.0,4.0,71,0.00,,OVC,0.00,0.00,VWS V15.00,2013-10-10 02:00:00,
2013-10-09 21:01:00,59.5,50.1,30.03,South,186,0.0,4.0,71,0.00,,SKC,0.00,0.00,VWS V14.01,2013-10-10 02:01:00,
2013-10-09 21:05:00,59.0,49.6,30.03,South,188,0.0,3.0,71,0.00,,OVC,0.00,0.00,VWS V15.00,2013-10-10 02:05:00,
2013-10-09 21:06:00,59.0,50.0,30.03,South,188,0.0,0.0,72,0.00,,SKC,0.00,0.00,VWS V14.01,2013-10-10 02:06:00,
2013-10-09 21:10:00,58.6,50.0,30.04,South,188,0.0,3.0,73,0.00,,OVC,0.00,0.00,VWS V15.00,2013-10-10 02:10:00,
2013-10-09 21:11:00,58.6,50.0,30.04,South,188,0.0,0.0,73,0.00,,SKC,0.00,0.00,VWS V14.01,2013-10-10 02:11:00,
2013-10-09 21:15:00,58.1,49.9,30.03,South,189,1.0,2.0,74,0.00,,OVC,0.00,0.00,VWS V15.00,2013-10-10 02:15:00,
2013-10-09 21:16:00,58.1,49.9,30.04,South,189,0.0,1.0,74,0.00,,SKC,0.00,0.00,VWS V14.01,2013-10-10 02:16:00,
2013-10-09 21:20:00,57.8,49.6,30.04,SSW,198,1.0,4.0,74,0.00,,OVC,0.00,0.00,VWS V15.00,2013-10-10 02:20:00,
2013-10-09 21:21:00,57.7,49.5,30.04,SSW,199,2.0,3.0,74,0.00,,SKC,0.00,0.00,VWS V14.01,2013-10-10 02:21:00,
2013-10-09 21:25:00,57.9,49.7,30.04,SSW,204,0.0,5.0,74,0.00,,OVC,0.00,0.00,VWS V15.00,2013-10-10 02:25:00,
2013-10-09 21:27:00,57.9,49.7,30.04,SSW,204,0.0,0.0,74,0.00,,SKC,0.00,0.00,VWS V14.01,2013-10-10 02:27:00,
2013-10-09 21:30:00,58.1,49.9,30.04,SSW,205,2.0,3.0,74,0.00,,OVC,0.00,0.00,VWS V15.00,2013-10-10 02:30:00,
2013-10-09 21:32:00,58.1,49.9,30.04,SSW,205,0.0,2.0,74,0.00,,SKC,0.00,0.00,VWS V14.01,2013-10-10 02:32:00,
2013-10-09 21:35:00,57.9,49.7,30.04,SSW,207,3.0,3.0,74,0.00,,OVC,0.00,0.00,VWS V15.00,2013-10-10 02:35:00,
2013-10-09 21:37:00,57.9,49.3,30.04,SSW,207,1.0,3.0,73,0.00,,SKC,0.00,0.00,VWS V14.01,2013-10-10 02:37:00,
2013-10-09 21:40:00,57.9,49.3,30.04,SSW,207,0.0,4.0,73,0.00,,OVC,0.00,0.00,VWS V15.00,2013-10-10 02:40:00,
2013-10-09 21:42:00,57.9,49.3,30.04,SSW,207,0.0,0.0,73,0.00,,SKC,0.00,0.00,VWS V14.01,2013-10-10 02:42:00,
2013-10-09 21:45:00,57.1,48.9,30.04,SSW,207,0.0,0.0,74,0.00,,OVC,0.00,0.00,VWS V15.00,2013-10-10 02:45:00,
2013-10-09 21:47:00,57.1,48.9,30.04,SSW,207,0.0,0.0,74,0.00,,SKC,0.00,0.00,VWS V14.01,2013-10-10 02:47:00,
2013-10-09 21:50:00,56.7,48.9,30.04,SSW,205,0.0,4.0,75,0.00,,OVC,0.00,0.00,VWS V15.00,2013-10-10 02:50:00,
2013-10-09 21:52:00,56.6,48.8,30.04,SSW,205,0.0,0.0,75,0.00,,SKC,0.00,0.00,VWS V14.01,2013-10-10 02:52:00,
2013-10-09 21:55:00,55.9,48.5,30.04,SSW,205,0.0,0.0,76,0.00,,OVC,0.00,0.00,VWS V15.00,2013-10-10 02:55:00,
2013-10-09 21:57:00,55.8,48.4,30.04,SSW,206,0.0,0.0,76,0.00,,SKC,0.00,0.00,VWS V14.01,2013-10-10 02:57:00,
2013-10-09 22:00:00,55.3,48.6,30.04,SSW,205,0.0,0.0,78,0.00,,OVC,0.00,0.00,VWS V15.00,2013-10-10 03:00:00,
2013-10-09 22:02:00,55.3,48.6,30.04,SSW,205,0.0,0.0,78,0.00,,SKC,0.00,0.00,VWS V14.01,2013-10-10 03:02:00,
2013-10-09 22:05:00,55.2,48.5,30.05,SSW,206,0.0,0.0,78,0.00,,OVC,0.00,0.00,VWS V15.00,2013-10-10 03:05:00,
2013-10-09 22:07:00,55.1,48.4,30.05,SSW,205,0.0,0.0,78,0.00,,SKC,0.00,0.00,VWS V14.01,2013-10-10 03:07:00,
2013-10-09 22:10:00,54.8,48.4,30.05,SSW,205,0.0,0.0,79,0.00,,OVC,0.00,0.00,VWS V15.00,2013-10-10 03:10:00,
2013-10-09 22:12:00,54.7,48.3,30.05,SSW,205,0.0,0.0,79,0.00,,SKC,0.00,0.00,VWS V14.01,2013-10-10 03:12:00,
2013-10-09 22:15:00,54.5,48.1,30.05,SSW,205,0.0,2.0,79,0.00,,OVC,0.00,0.00,VWS V15.00,2013-10-10 03:15:00,
2013-10-09 22:17:00,54.5,48.5,30.05,SSW,206,0.0,0.0,80,0.00,,SKC,0.00,0.00,VWS V14.01,2013-10-10 03:17:00,
2013-10-09 22:20:00,54.6,48.2,30.05,SSW,206,0.0,0.0,79,0.00,,OVC,0.00,0.00,VWS V15.00,2013-10-10 03:20:00,
2013-10-09 22:22:00,54.6,48.2,30.05,SSW,205,0.0,0.0,79,0.00,,SKC,0.00,0.00,VWS V14.01,2013-10-10 03:22:00,
2013-10-09 22:25:00,54.8,48.1,30.05,SSW,205,0.0,0.0,78,0.00,,OVC,0.00,0.00,VWS V15.00,2013-10-10 03:25:00,
2013-10-09 22:27:00,54.9,48.2,30.05,SSW,206,0.0,0.0,78,0.00,,SKC,0.00,0.00,VWS V14.01,2013-10-10 03:27:00,
2013-10-09 22:30:00,54.7,48.0,30.05,SSW,206,0.0,0.0,78,0.00,,OVC,0.00,0.00,VWS V15.00,2013-10-10 03:30:00,
2013-10-09 22:32:00,54.7,48.0,30.05,SSW,205,0.0,1.0,78,0.00,,SKC,0.00,0.00,VWS V14.01,2013-10-10 03:32:00,
2013-10-09 22:35:00,54.6,48.2,30.05,SSW,205,1.0,3.0,79,0.00,,OVC,0.00,0.00,VWS V15.00,2013-10-10 03:35:00,
2013-10-09 22:37:00,54.6,48.2,30.05,SSW,198,0.0,4.0,79,0.00,,SKC,0.00,0.00,VWS V14.01,2013-10-10 03:37:00,
2013-10-09 22:40:00,54.5,48.1,30.05,South,186,0.0,4.0,79,0.00,,OVC,0.00,0.00,VWS V15.00,2013-10-10 03:40:00,
2013-10-09 22:42:00,54.5,48.1,30.05,South,186,0.0,0.0,79,0.00,,SKC,0.00,0.00,VWS V14.01,2013-10-10 03:42:00,
2013-10-09 22:45:00,54.4,47.7,30.06,South,188,3.0,4.0,78,0.00,,OVC,0.00,0.00,VWS V15.00,2013-10-10 03:45:00,
2013-10-09 22:47:00,54.4,47.7,30.06,South,186,0.0,3.0,78,0.00,,SKC,0.00,0.00,VWS V14.01,2013-10-10 03:47:00,
2013-10-09 22:50:00,54.4,47.7,30.06,South,186,0.0,3.0,78,0.00,,OVC,0.00,0.00,VWS V15.00,2013-10-10 03:50:00,
2013-10-09 22:52:00,54.4,47.7,30.06,South,186,3.0,3.0,78,0.00,,SKC,0.00,0.00,VWS V14.01,2013-10-10 03:52:00,
2013-10-09 22:55:00,54.2,47.8,30.06,South,186,0.0,3.0,79,0.00,,OVC,0.00,0.00,VWS V15.00,2013-10-10 03:55:00,
2013-10-09 22:57:00,54.3,47.6,30.06,South,186,0.0,0.0,78,0.00,,SKC,0.00,0.00,VWS V14.01,2013-10-10 03:57:00,
2013-10-09 23:00:00,54.2,47.5,30.06,South,186,0.0,0.0,78,0.00,,OVC,0.00,0.00,VWS V15.00,2013-10-10 04:00:00,
2013-10-09 23:01:00,54.2,47.5,30.06,South,186,0.0,0.0,78,0.00,,SKC,0.00,0.00,VWS V14.01,2013-10-10 04:01:00,
2013-10-09 23:02:00,54.2,47.5,30.06,South,188,0.0,0.0,78,0.00,,SKC,0.00,0.00,VWS V14.01,2013-10-10 04:02:00,
2013-10-09 23:04:00,54.1,47.7,30.06,South,188,0.0,0.0,79,0.00,,SKC,0.00,0.00,VWS V14.01,2013-10-10 04:04:00,
2013-10-09 23:05:00,54.2,47.5,30.06,South,188,0.0,0.0,78,0.00,,OVC,0.00,0.00,VWS V15.00,2013-10-10 04:05:00,
2013-10-09 23:07:00,54.1,47.4,30.06,South,188,0.0,1.0,78,0.00,,SKC,0.00,0.00,VWS V14.01,2013-10-10 04:07:00,
2013-10-09 23:10:00,54.4,47.7,30.06,South,188,0.0,1.0,78,0.00,,OVC,0.00,0.00,VWS V15.00,2013-10-10 04:10:00,
2013-10-09 23:12:00,54.4,47.7,30.06,South,188,0.0,1.0,78,0.00,,SKC,0.00,0.00,VWS V14.01,2013-10-10 04:12:00,
2013-10-09 23:15:00,54.0,47.3,30.06,South,188,0.0,1.0,78,0.00,,OVC,0.00,0.00,VWS V15.00,2013-10-10 04:15:00,
2013-10-09 23:17:00,53.9,47.5,30.06,South,188,0.0,0.0,79,0.00,,SKC,0.00,0.00,VWS V14.01,2013-10-10 04:17:00,
2013-10-09 23:20:00,53.3,47.3,30.06,South,188,0.0,0.0,80,0.00,,OVC,0.00,0.00,VWS V15.00,2013-10-10 04:20:00,
2013-10-09 23:22:00,53.3,47.3,30.06,South,188,0.0,1.0,80,0.00,,SKC,0.00,0.00,VWS V14.01,2013-10-10 04:22:00,
2013-10-09 23:25:00,52.8,47.1,30.06,South,189,0.0,1.0,81,0.00,,OVC,0.00,0.00,VWS V15.00,2013-10-10 04:25:00,
2013-10-09 23:27:00,52.7,47.0,30.06,SSW,192,3.0,3.0,81,0.00,,SKC,0.00,0.00,VWS V14.01,2013-10-10 04:27:00,
2013-10-09 23:30:00,52.7,47.0,30.06,SSW,192,0.0,3.0,81,0.00,,OVC,0.00,0.00,VWS V15.00,2013-10-10 04:30:00,
2013-10-09 23:32:00,52.8,47.1,30.07,SSW,192,0.0,0.0,81,0.00,,SKC,0.00,0.00,VWS V14.01,2013-10-10 04:32:00,
2013-10-09 23:35:00,52.7,47.0,30.07,SSW,193,0.0,0.0,81,0.00,,OVC,0.00,0.00,VWS V15.00,2013-10-10 04:35:00,
2013-10-09 23:37:00,52.7,47.0,30.07,SSW,192,0.0,0.0,81,0.00,,SKC,0.00,0.00,VWS V14.01,2013-10-10 04:37:00,
2013-10-09 23:40:00,52.9,47.2,30.07,SSW,193,0.0,0.0,81,0.00,,OVC,0.00,0.00,VWS V15.00,2013-10-10 04:40:00,
2013-10-09 23:42:00,53.1,47.1,30.07,SSW,196,1.0,4.0,80,0.00,,SKC,0.00,0.00,VWS V14.01,2013-10-10 04:42:00,
2013-10-09 23:45:00,53.3,47.3,30.07,SSW,196,0.0,4.0,80,0.00,,OVC,0.00,0.00,VWS V15.00,2013-10-10 04:45:00,
2013-10-09 23:47:00,53.1,47.1,30.07,SSW,197,0.0,3.0,80,0.00,,SKC,0.00,0.00,VWS V14.01,2013-10-10 04:47:00,
2013-10-09 23:50:00,53.1,47.1,30.07,SSW,197,0.0,3.0,80,0.00,,OVC,0.00,0.00,VWS V15.00,2013-10-10 04:50:00,
2013-10-09 23:52:00,53.1,47.1,30.07,SSW,197,0.0,1.0,80,0.00,,SKC,0.00,0.00,VWS V14.01,2013-10-10 04:52:00,
2013-10-09 23:55:00,52.9,47.2,30.07,SSW,197,0.0,1.0,81,0.00,,OVC,0.00,0.00,VWS V15.00,2013-10-10 04:55:00,
2013-10-09 23:57:00,53.0,47.3,30.07,SSW,200,0.0,3.0,81,0.00,,SKC,0.00,0.00,VWS V14.01,2013-10-10 04:57:00,